GFSGL_prec_precacc24_132.txt.gz
Total_Precipitation_Accumulation
0.00 0.00 0.00 0.00 0.01 0.02 0.04 0.11 0.03 0.07 0.16 0.11 0.10 0.16 0.10 0.13 0.16 0.33 0.26 0.12 0.16 0.14 0.03 0.04 0.02 0.02 0.00 0.01 0.01 0.03 0.03 0.02 0.01 0.01 0.02 0.06 0.10 0.07 0.03 0.08 0.15 0.07 0.00
0.00 0.00 0.02 0.00 0.00 0.00 0.00 0.01 0.02 0.05 0.12 0.07 0.09 0.11 0.12 0.08 0.21 0.52 0.28 0.22 0.29 0.16 0.07 0.05 0.07 0.02 0.07 0.01 0.03 0.05 0.04 0.05 0.02 0.06 0.06 0.12 0.20 0.11 0.07 0.09 0.05 0.00 0.00
0.04 0.03 0.00 0.00 0.00 0.00 0.00 0.00 0.02 0.05 0.08 0.07 0.15 0.29 0.21 0.20 0.25 0.32 0.37 0.33 0.20 0.25 0.18 0.13 0.13 0.17 0.23 0.11 0.11 0.09 0.07 0.20 0.16 0.20 0.10 0.04 0.11 0.07 0.12 0.09 0.07 0.02 0.00
0.12 0.07 0.05 0.06 0.03 0.02 0.00 0.00 0.00 0.00 0.02 0.05 0.07 0.23 0.29 0.24 0.15 0.25 0.55 0.31 0.25 0.31 0.42 0.28 0.17 0.28 0.49 0.35 0.20 0.26 0.18 0.29 0.32 0.23 0.14 0.06 0.09 0.10 0.17 0.19 0.16 0.10 0.01
0.23 0.18 0.27 0.25 0.21 0.24 0.23 0.15 0.11 0.16 0.11 0.06 0.06 0.24 0.44 0.40 0.26 0.34 0.49 0.40 0.29 0.25 0.27 0.32 0.24 0.47 0.48 0.47 0.36 0.34 0.40 0.30 0.25 0.16 0.08 0.12 0.16 0.30 0.59 0.35 0.26 0.21 0.09
0.34 0.41 0.35 0.38 0.37 0.46 0.41 0.52 0.53 0.68 0.64 0.40 0.34 0.21 0.22 0.07 0.33 0.54 0.29 0.33 0.24 0.23 0.31 0.28 0.23 0.44 0.49 0.34 0.14 0.17 0.29 0.31 0.32 0.25 0.19 0.21 0.33 0.46 0.27 0.19 0.26 0.22 0.15
0.63 0.57 0.56 0.55 0.52 0.49 0.64 0.77 0.73 0.88 0.88 0.76 0.60 0.54 0.43 0.23 0.15 0.12 0.05 0.08 0.22 0.35 0.33 0.31 0.19 0.19 0.40 0.31 0.34 0.12 0.05 0.07 0.13 0.17 0.17 0.15 0.17 0.16 0.13 0.12 0.19 0.21 0.19
0.57 0.48 0.53 0.64 0.77 0.77 0.66 0.70 0.94 1.07 1.13 1.05 0.89 0.76 0.60 0.41 0.20 0.10 0.03 0.02 0.07 0.15 0.27 0.22 0.28 0.28 0.23 0.37 0.22 0.17 0.11 0.06 0.04 0.00 0.04 0.07 0.15 0.08 0.06 0.13 0.21 0.18 0.15
0.77 0.81 1.00 1.23 1.32 1.35 1.20 1.01 1.13 1.24 1.14 1.05 1.10 1.08 0.87 0.70 0.44 0.19 0.14 0.11 0.14 0.16 0.21 0.19 0.15 0.12 0.22 0.25 0.22 0.19 0.28 0.12 0.05 0.00 0.00 0.00 0.01 0.00 0.00 0.02 0.16 0.24 0.34
0.84 0.73 0.70 0.77 0.81 0.87 0.97 0.88 0.65 0.74 0.78 0.72 0.64 0.45 0.46 0.47 0.54 0.44 0.34 0.21 0.12 0.09 0.05 0.03 0.01 0.02 0.03 0.02 0.06 0.14 0.24 0.15 0.03 0.00 0.00 0.00 0.00 0.00 0.00 0.01 0.04 0.11 0.14
1.48 1.24 0.78 0.74 0.75 0.71 0.70 0.77 0.87 0.98 0.95 0.86 0.72 0.65 0.77 0.89 0.79 0.71 0.67 0.55 0.46 0.31 0.18 0.11 0.06 0.05 0.02 0.02 0.02 0.02 0.05 0.04 0.03 0.01 0.00 0.00 0.00 0.00 0.00 0.00 0.00 0.00 0.01
1.35 1.61 2.14 1.57 1.33 1.32 1.33 1.11 0.98 0.84 0.88 0.82 0.91 0.96 0.90 0.77 0.91 0.75 0.56 0.50 0.43 0.34 0.36 0.37 0.38 0.49 0.25 0.14 0.08 0.04 0.03 0.02 0.01 0.01 0.00 0.01 0.01 0.01 0.02 0.01 0.01 0.02 0.03
0.42 0.47 0.64 0.70 0.70 0.94 0.88 0.48 0.46 0.41 0.32 0.31 0.26 0.18 0.14 0.11 0.13 0.13 0.07 0.08 0.12 0.11 0.12 0.13 0.16 0.20 0.16 0.12 0.10 0.09 0.07 0.05 0.03 0.03 0.04 0.03 0.03 0.02 0.02 0.02 0.01 0.01 0.01
0.25 0.37 0.40 0.46 0.51 0.40 0.43 0.44 0.32 0.37 0.33 0.22 0.20 0.18 0.13 0.10 0.10 0.11 0.13 0.12 0.08 0.04 0.05 0.04 0.02 0.02 0.02 0.02 0.03 0.03 0.02 0.01 0.01 0.00 0.00 0.00 0.00 0.00 0.00 0.00 0.00 0.00 0.00
0.05 0.12 0.21 0.27 0.34 0.32 0.37 0.49 0.60 0.38 0.30 0.25 0.23 0.16 0.13 0.18 0.26 0.20 0.18 0.25 0.16 0.11 0.07 0.04 0.03 0.02 0.01 0.01 0.01 0.02 0.04 0.07 0.07 0.06 0.02 0.02 0.02 0.01 0.00 0.00 0.00 0.00 0.00
0.01 0.03 0.07 0.07 0.05 0.09 0.20 0.27 0.27 0.29 0.34 0.28 0.34 0.31 0.22 0.19 0.22 0.19 0.15 0.13 0.18 0.23 0.18 0.16 0.14 0.12 0.11 0.09 0.09 0.10 0.09 0.05 0.03 0.01 0.01 0.00 0.00 0.00 0.00 0.00 0.00 0.00 0.00
0.00 0.00 0.01 0.01 0.01 0.01 0.01 0.01 0.01 0.01 0.02 0.04 0.08 0.15 0.15 0.12 0.06 0.03 0.02 0.01 0.01 0.02 0.05 0.06 0.06 0.07 0.06 0.04 0.02 0.01 0.01 0.00 0.00 0.00 0.00 0.00 0.00 0.00 0.00 0.00 0.00 0.00 0.00
0.00 0.00 0.00 0.00 0.00 0.00 0.00 0.00 0.00 0.00 0.00 0.00 0.00 0.00 0.00 0.00 0.00 0.00 0.00 0.00 0.00 0.00 0.01 0.01 0.00 0.00 0.00 0.00 0.00 0.00 0.00 0.00 0.00 0.00 0.00 0.00 0.00 0.00 0.00 0.00 0.00 0.00 0.00
0.00 0.00 0.00 0.00 0.00 0.00 0.00 0.00 0.00 0.00 0.00 0.00 0.00 0.00 0.00 0.00 0.00 0.00 0.00 0.00 0.00 0.00 0.00 0.00 0.00 0.00 0.00 0.00 0.00 0.00 0.00 0.00 0.00 0.00 0.00 0.00 0.00 0.00 0.00 0.00 0.00 0.00 0.00
0.00 0.00 0.00 0.00 0.00 0.00 0.00 0.00 0.00 0.00 0.00 0.00 0.00 0.00 0.00 0.00 0.00 0.00 0.00 0.00 0.00 0.00 0.00 0.00 0.00 0.00 0.00 0.00 0.00 0.00 0.00 0.00 0.00 0.00 0.00 0.00 0.00 0.00 0.00 0.00 0.00 0.00 0.00
0.00 0.00 0.00 0.00 0.00 0.00 0.00 0.00 0.00 0.00 0.00 0.00 0.00 0.00 0.00 0.00 0.00 0.00 0.00 0.00 0.00 0.00 0.00 0.00 0.00 0.00 0.00 0.00 0.00 0.00 0.00 0.00 0.00 0.00 0.00 0.00 0.00 0.00 0.00 0.00 0.00 0.00 0.00
0.00 0.00 0.00 0.00 0.00 0.00 0.00 0.00 0.00 0.00 0.00 0.00 0.00 0.00 0.00 0.00 0.00 0.00 0.00 0.00 0.00 0.00 0.00 0.00 0.00 0.00 0.00 0.00 0.00 0.00 0.00 0.00 0.00 0.00 0.00 0.00 0.00 0.00 0.00 0.00 0.00 0.00 0.00
0.00 0.00 0.00 0.00 0.00 0.00 0.00 0.00 0.00 0.00 0.00 0.00 0.00 0.00 0.00 0.00 0.00 0.00 0.00 0.00 0.00 0.00 0.00 0.00 0.00 0.00 0.00 0.00 0.00 0.00 0.00 0.00 0.00 0.00 0.00 0.00 0.00 0.00 0.00 0.00 0.00 0.00 0.00
0.00 0.00 0.00 0.00 0.00 0.00 0.00 0.00 0.00 0.00 0.00 0.00 0.00 0.00 0.00 0.00 0.00 0.00 0.00 0.00 0.00 0.00 0.00 0.00 0.00 0.00 0.00 0.00 0.00 0.00 0.00 0.00 0.00 0.00 0.00 0.00 0.00 0.00 0.00 0.00 0.00 0.00 0.00
0.01 0.01 0.00 0.00 0.00 0.00 0.00 0.00 0.00 0.00 0.00 0.00 0.00 0.00 0.00 0.00 0.00 0.00 0.00 0.00 0.00 0.00 0.00 0.00 0.00 0.00 0.00 0.00 0.00 0.00 0.00 0.00 0.00 0.00 0.00 0.00 0.00 0.00 0.00 0.00 0.00 0.00 0.00
0.02 0.02 0.01 0.01 0.01 0.00 0.01 0.01 0.00 0.01 0.01 0.01 0.00 0.00 0.00 0.00 0.00 0.00 0.00 0.00 0.00 0.00 0.00 0.00 0.00 0.00 0.00 0.00 0.00 0.00 0.00 0.00 0.00 0.00 0.00 0.00 0.00 0.00 0.00 0.00 0.00 0.00 0.00

GFSGL_prec_precacc24_135.txt.gz
Total_Precipitation_Accumulation
0.00 0.00 0.00 0.00 0.01 0.02 0.07 0.12 0.06 0.08 0.11 0.10 0.13 0.11 0.11 0.14 0.17 0.32 0.26 0.13 0.14 0.14 0.04 0.07 0.04 0.02 0.00 0.01 0.01 0.05 0.03 0.03 0.01 0.01 0.03 0.07 0.12 0.13 0.07 0.08 0.15 0.07 0.00
0.00 0.00 0.00 0.00 0.00 0.00 0.02 0.02 0.04 0.05 0.05 0.05 0.11 0.12 0.12 0.06 0.19 0.43 0.24 0.21 0.29 0.16 0.08 0.06 0.07 0.03 0.07 0.01 0.04 0.06 0.04 0.06 0.02 0.05 0.06 0.13 0.21 0.19 0.15 0.11 0.06 0.01 0.00
0.04 0.03 0.00 0.00 0.00 0.00 0.00 0.00 0.02 0.05 0.05 0.05 0.14 0.28 0.23 0.19 0.24 0.31 0.34 0.31 0.18 0.24 0.18 0.13 0.13 0.17 0.23 0.11 0.11 0.09 0.06 0.18 0.16 0.17 0.09 0.04 0.09 0.14 0.30 0.31 0.20 0.07 0.01
0.07 0.06 0.05 0.02 0.01 0.02 0.00 0.00 0.00 0.00 0.02 0.02 0.05 0.21 0.22 0.17 0.10 0.24 0.53 0.30 0.24 0.31 0.40 0.27 0.16 0.27 0.48 0.34 0.18 0.29 0.21 0.29 0.34 0.23 0.12 0.03 0.08 0.10 0.26 0.48 0.66 0.26 0.04
0.16 0.09 0.19 0.17 0.09 0.18 0.22 0.14 0.10 0.13 0.10 0.05 0.05 0.20 0.27 0.18 0.22 0.33 0.48 0.39 0.28 0.25 0.24 0.25 0.20 0.46 0.53 0.48 0.37 0.35 0.43 0.34 0.28 0.18 0.11 0.13 0.16 0.32 0.67 0.67 0.60 0.43 0.16
0.27 0.25 0.27 0.31 0.30 0.34 0.27 0.36 0.41 0.58 0.56 0.37 0.32 0.20 0.16 0.07 0.29 0.55 0.30 0.33 0.26 0.23 0.28 0.23 0.21 0.39 0.46 0.34 0.15 0.18 0.29 0.33 0.34 0.27 0.26 0.27 0.35 0.47 0.28 0.21 0.33 0.37 0.28
0.86 0.59 0.57 0.59 0.52 0.47 0.59 0.61 0.58 0.76 0.78 0.61 0.57 0.55 0.46 0.39 0.30 0.21 0.14 0.09 0.23 0.38 0.31 0.20 0.13 0.15 0.32 0.26 0.35 0.17 0.06 0.07 0.13 0.18 0.19 0.21 0.21 0.23 0.23 0.21 0.30 0.30 0.30
0.89 0.74 0.65 0.77 0.90 0.87 0.79 0.86 1.01 1.08 1.03 0.96 0.78 0.70 0.66 0.53 0.31 0.19 0.07 0.02 0.05 0.16 0.24 0.16 0.24 0.24 0.24 0.41 0.25 0.31 0.24 0.16 0.08 0.01 0.04 0.10 0.18 0.09 0.07 0.17 0.24 0.24 0.24
0.79 0.87 1.08 1.29 1.40 1.40 1.32 1.14 1.18 1.25 1.19 1.11 1.13 1.12 1.00 0.77 0.53 0.25 0.13 0.05 0.04 0.12 0.15 0.18 0.15 0.11 0.22 0.26 0.22 0.21 0.35 0.20 0.11 0.02 0.00 0.00 0.01 0.00 0.00 0.02 0.17 0.28 0.42
0.97 0.86 0.79 0.84 0.92 0.96 1.06 0.96 0.73 0.81 0.84 0.73 0.64 0.45 0.48 0.49 0.55 0.45 0.33 0.17 0.09 0.09 0.05 0.04 0.02 0.02 0.03 0.02 0.06 0.14 0.29 0.19 0.04 0.03 0.03 0.01 0.00 0.00 0.00 0.01 0.04 0.11 0.15
1.59 1.34 0.86 0.81 0.83 0.81 0.78 0.83 0.90 0.98 0.95 0.86 0.72 0.65 0.78 0.90 0.79 0.72 0.67 0.54 0.46 0.40 0.27 0.14 0.07 0.08 0.04 0.03 0.03 0.04 0.10 0.12 0.10 0.05 0.02 0.01 0.01 0.00 0.00 0.00 0.00 0.00 0.01
1.27 1.66 2.21 1.59 1.33 1.33 1.33 1.11 0.98 0.84 0.88 0.82 0.90 0.96 0.90 0.77 0.91 0.75 0.56 0.50 0.43 0.34 0.36 0.38 0.41 0.55 0.32 0.21 0.12 0.09 0.08 0.06 0.03 0.01 0.01 0.01 0.01 0.01 0.02 0.02 0.02 0.02 0.04
0.39 0.43 0.57 0.64 0.68 0.94 0.88 0.48 0.46 0.41 0.32 0.31 0.26 0.18 0.14 0.11 0.13 0.13 0.07 0.08 0.12 0.11 0.12 0.13 0.16 0.22 0.18 0.14 0.11 0.10 0.08 0.05 0.03 0.03 0.04 0.03 0.03 0.02 0.02 0.02 0.02 0.01 0.01
0.24 0.32 0.31 0.39 0.46 0.40 0.43 0.44 0.32 0.37 0.33 0.21 0.20 0.18 0.13 0.10 0.10 0.11 0.13 0.12 0.08 0.04 0.05 0.04 0.02 0.02 0.02 0.02 0.03 0.03 0.02 0.01 0.01 0.01 0.02 0.01 0.00 0.00 0.00 0.01 0.01 0.00 0.00
0.04 0.11 0.18 0.23 0.30 0.31 0.36 0.48 0.60 0.38 0.30 0.25 0.23 0.16 0.13 0.18 0.26 0.20 0.18 0.25 0.16 0.11 0.07 0.04 0.03 0.02 0.01 0.01 0.01 0.02 0.04 0.07 0.08 0.08 0.05 0.02 0.02 0.02 0.02 0.01 0.00 0.00 0.00
0.00 0.02 0.05 0.05 0.04 0.08 0.19 0.26 0.27 0.29 0.34 0.28 0.34 0.31 0.22 0.19 0.22 0.19 0.15 0.13 0.18 0.23 0.18 0.16 0.14 0.12 0.11 0.09 0.09 0.10 0.09 0.06 0.03 0.01 0.01 0.00 0.00 0.00 0.00 0.00 0.00 0.00 0.00
0.00 0.00 0.00 0.00 0.01 0.00 0.00 0.01 0.01 0.01 0.02 0.04 0.08 0.15 0.15 0.12 0.06 0.03 0.02 0.01 0.01 0.02 0.05 0.06 0.06 0.07 0.06 0.04 0.02 0.01 0.01 0.00 0.00 0.00 0.00 0.00 0.00 0.00 0.00 0.00 0.00 0.00 0.00
0.00 0.00 0.00 0.00 0.00 0.00 0.00 0.00 0.00 0.00 0.00 0.00 0.00 0.00 0.00 0.00 0.00 0.00 0.00 0.00 0.00 0.00 0.01 0.01 0.00 0.00 0.00 0.00 0.00 0.00 0.00 0.00 0.00 0.00 0.00 0.00 0.00 0.00 0.00 0.00 0.00 0.00 0.00
0.00 0.00 0.00 0.00 0.00 0.00 0.00 0.00 0.00 0.00 0.00 0.00 0.00 0.00 0.00 0.00 0.00 0.00 0.00 0.00 0.00 0.00 0.00 0.00 0.00 0.00 0.00 0.00 0.00 0.00 0.00 0.00 0.00 0.00 0.00 0.00 0.00 0.00 0.00 0.00 0.00 0.00 0.00
0.00 0.00 0.00 0.00 0.00 0.00 0.00 0.00 0.00 0.00 0.00 0.00 0.00 0.00 0.00 0.00 0.00 0.00 0.00 0.00 0.00 0.00 0.00 0.00 0.00 0.00 0.00 0.00 0.00 0.00 0.00 0.00 0.00 0.00 0.00 0.00 0.00 0.00 0.00 0.00 0.00 0.00 0.00
0.00 0.00 0.00 0.00 0.00 0.00 0.00 0.00 0.00 0.00 0.00 0.00 0.00 0.00 0.00 0.00 0.00 0.00 0.00 0.00 0.00 0.00 0.00 0.00 0.00 0.00 0.00 0.00 0.00 0.00 0.00 0.00 0.00 0.00 0.00 0.00 0.00 0.00 0.00 0.00 0.00 0.00 0.00
0.00 0.00 0.00 0.00 0.00 0.00 0.00 0.00 0.00 0.00 0.00 0.00 0.00 0.00 0.00 0.00 0.00 0.00 0.00 0.00 0.00 0.00 0.00 0.00 0.00 0.00 0.00 0.00 0.00 0.00 0.00 0.00 0.00 0.00 0.00 0.00 0.00 0.00 0.00 0.00 0.00 0.00 0.00
0.00 0.00 0.00 0.00 0.00 0.00 0.00 0.00 0.00 0.00 0.00 0.00 0.00 0.00 0.00 0.00 0.00 0.00 0.00 0.00 0.00 0.00 0.00 0.00 0.00 0.00 0.00 0.00 0.00 0.00 0.00 0.00 0.00 0.00 0.00 0.00 0.00 0.00 0.00 0.00 0.00 0.00 0.00
0.00 0.00 0.00 0.00 0.00 0.00 0.00 0.00 0.00 0.00 0.00 0.00 0.00 0.00 0.00 0.00 0.00 0.00 0.00 0.00 0.00 0.00 0.00 0.00 0.00 0.00 0.00 0.00 0.00 0.00 0.00 0.00 0.00 0.00 0.00 0.00 0.00 0.00 0.00 0.00 0.00 0.00 0.00
0.01 0.01 0.00 0.00 0.00 0.00 0.00 0.00 0.00 0.00 0.00 0.00 0.00 0.00 0.00 0.00 0.00 0.00 0.00 0.00 0.00 0.00 0.00 0.00 0.00 0.00 0.00 0.00 0.00 0.00 0.00 0.00 0.00 0.00 0.00 0.00 0.00 0.00 0.00 0.00 0.00 0.00 0.00
0.02 0.02 0.01 0.01 0.01 0.00 0.01 0.01 0.00 0.01 0.01 0.01 0.00 0.00 0.00 0.00 0.00 0.00 0.00 0.00 0.00 0.00 0.00 0.00 0.00 0.00 0.00 0.00 0.00 0.00 0.00 0.00 0.00 0.00 0.00 0.00 0.00 0.00 0.00 0.00 0.00 0.00 0.00

GFSGL_prec_precacc24_138.txt.gz
Total_Precipitation_Accumulation
0.00 0.00 0.00 0.00 0.00 0.02 0.07 0.12 0.06 0.08 0.11 0.10 0.13 0.11 0.10 0.14 0.15 0.27 0.24 0.13 0.14 0.13 0.03 0.07 0.04 0.02 0.01 0.03 0.01 0.03 0.03 0.05 0.02 0.03 0.04 0.07 0.14 0.15 0.11 0.11 0.18 0.07 0.00
0.00 0.00 0.00 0.00 0.00 0.00 0.02 0.02 0.04 0.05 0.05 0.05 0.11 0.11 0.10 0.06 0.15 0.33 0.21 0.20 0.28 0.14 0.08 0.05 0.07 0.03 0.08 0.02 0.04 0.07 0.04 0.07 0.06 0.06 0.09 0.16 0.24 0.21 0.17 0.21 0.09 0.01 0.00
0.01 0.00 0.00 0.00 0.00 0.00 0.00 0.00 0.02 0.05 0.05 0.04 0.10 0.23 0.20 0.10 0.06 0.19 0.25 0.24 0.17 0.18 0.13 0.12 0.12 0.15 0.22 0.13 0.12 0.09 0.06 0.15 0.16 0.16 0.07 0.05 0.12 0.18 0.37 0.43 0.28 0.11 0.02
0.01 0.00 0.00 0.00 0.00 0.00 0.00 0.00 0.00 0.00 0.02 0.02 0.02 0.07 0.09 0.06 0.04 0.05 0.26 0.24 0.26 0.22 0.29 0.21 0.13 0.27 0.50 0.37 0.21 0.33 0.23 0.33 0.36 0.24 0.13 0.04 0.11 0.13 0.34 0.56 0.69 0.34 0.09
0.13 0.03 0.00 0.02 0.04 0.02 0.01 0.01 0.01 0.05 0.04 0.02 0.02 0.08 0.20 0.17 0.16 0.22 0.34 0.38 0.29 0.21 0.24 0.24 0.17 0.35 0.49 0.44 0.33 0.38 0.49 0.48 0.35 0.19 0.11 0.12 0.17 0.33 0.72 0.74 0.61 0.43 0.17
0.36 0.16 0.11 0.12 0.19 0.16 0.17 0.25 0.24 0.36 0.45 0.34 0.26 0.27 0.24 0.18 0.36 0.50 0.27 0.30 0.28 0.23 0.21 0.20 0.20 0.34 0.35 0.26 0.12 0.18 0.29 0.35 0.36 0.27 0.26 0.25 0.36 0.51 0.31 0.22 0.35 0.38 0.29
0.97 0.62 0.49 0.50 0.46 0.44 0.57 0.55 0.49 0.62 0.67 0.58 0.59 0.53 0.50 0.44 0.37 0.32 0.24 0.11 0.21 0.38 0.27 0.19 0.15 0.14 0.29 0.21 0.30 0.17 0.05 0.06 0.12 0.17 0.19 0.22 0.23 0.25 0.24 0.22 0.31 0.37 0.42
1.65 1.45 0.85 0.89 0.96 0.91 0.89 1.01 1.16 1.09 0.96 0.91 0.72 0.59 0.63 0.59 0.46 0.36 0.23 0.11 0.07 0.16 0.24 0.17 0.24 0.24 0.24 0.41 0.25 0.31 0.24 0.17 0.09 0.02 0.04 0.10 0.18 0.09 0.07 0.18 0.25 0.28 0.31
1.37 1.19 1.32 1.33 1.44 1.57 1.54 1.39 1.34 1.26 1.22 1.17 1.12 1.07 1.06 0.80 0.66 0.34 0.17 0.06 0.05 0.13 0.16 0.18 0.16 0.12 0.22 0.26 0.22 0.21 0.35 0.20 0.11 0.02 0.01 0.00 0.01 0.00 0.00 0.02 0.17 0.29 0.43
1.20 1.07 0.92 0.96 0.95 1.01 1.19 1.15 0.85 0.90 0.93 0.79 0.67 0.47 0.50 0.49 0.55 0.45 0.30 0.12 0.07 0.08 0.05 0.04 0.03 0.03 0.04 0.02 0.06 0.14 0.29 0.20 0.05 0.03 0.03 0.01 0.00 0.00 0.01 0.01 0.04 0.11 0.15
1.57 1.58 0.92 0.80 0.92 0.86 0.86 0.93 1.00 1.05 0.99 0.88 0.73 0.65 0.78 0.90 0.79 0.72 0.66 0.52 0.45 0.40 0.27 0.14 0.07 0.09 0.04 0.04 0.03 0.04 0.11 0.14 0.17 0.10 0.07 0.07 0.04 0.01 0.01 0.00 0.00 0.00 0.02
0.65 1.56 2.34 1.58 1.30 1.34 1.38 1.14 0.99 0.85 0.89 0.83 0.90 0.96 0.90 0.77 0.91 0.75 0.56 0.50 0.42 0.33 0.35 0.38 0.41 0.55 0.32 0.22 0.13 0.09 0.08 0.07 0.06 0.08 0.06 0.04 0.02 0.02 0.02 0.02 0.02 0.02 0.04
0.33 0.47 0.52 0.57 0.59 0.87 0.85 0.47 0.45 0.41 0.32 0.31 0.26 0.18 0.14 0.11 0.13 0.13 0.07 0.08 0.11 0.11 0.12 0.13 0.16 0.22 0.18 0.14 0.11 0.10 0.08 0.05 0.03 0.03 0.04 0.03 0.03 0.02 0.02 0.02 0.02 0.01 0.01
0.23 0.32 0.28 0.35 0.39 0.32 0.37 0.40 0.31 0.36 0.32 0.21 0.19 0.18 0.13 0.10 0.10 0.11 0.13 0.12 0.08 0.04 0.05 0.04 0.02 0.02 0.02 0.02 0.03 0.03 0.02 0.01 0.01 0.01 0.02 0.01 0.00 0.00 0.00 0.01 0.01 0.00 0.00
0.03 0.09 0.17 0.19 0.23 0.24 0.31 0.45 0.57 0.36 0.30 0.25 0.23 0.16 0.13 0.18 0.26 0.20 0.19 0.25 0.16 0.11 0.07 0.04 0.03 0.02 0.01 0.01 0.01 0.02 0.04 0.07 0.08 0.08 0.05 0.02 0.02 0.02 0.02 0.01 0.00 0.00 0.00
0.00 0.01 0.05 0.05 0.03 0.06 0.16 0.24 0.25 0.27 0.31 0.27 0.34 0.31 0.22 0.19 0.22 0.19 0.15 0.13 0.18 0.23 0.18 0.16 0.14 0.12 0.11 0.09 0.09 0.10 0.09 0.06 0.03 0.01 0.01 0.00 0.00 0.00 0.00 0.00 0.00 0.00 0.00
0.00 0.00 0.00 0.00 0.00 0.00 0.00 0.00 0.01 0.01 0.01 0.03 0.08 0.15 0.15 0.12 0.06 0.03 0.02 0.01 0.01 0.02 0.05 0.06 0.06 0.07 0.06 0.04 0.02 0.01 0.01 0.00 0.00 0.00 0.00 0.00 0.00 0.00 0.00 0.00 0.00 0.00 0.00
0.00 0.00 0.00 0.00 0.00 0.00 0.00 0.00 0.00 0.00 0.00 0.00 0.00 0.00 0.00 0.00 0.00 0.00 0.00 0.00 0.00 0.00 0.01 0.01 0.00 0.00 0.00 0.00 0.00 0.00 0.00 0.00 0.00 0.00 0.00 0.00 0.00 0.00 0.00 0.00 0.00 0.00 0.00
0.00 0.00 0.00 0.00 0.00 0.00 0.00 0.00 0.00 0.00 0.00 0.00 0.00 0.00 0.00 0.00 0.00 0.00 0.00 0.00 0.00 0.00 0.00 0.00 0.00 0.00 0.00 0.00 0.00 0.00 0.00 0.00 0.00 0.00 0.00 0.00 0.00 0.00 0.00 0.00 0.00 0.00 0.00
0.00 0.00 0.00 0.00 0.00 0.00 0.00 0.00 0.00 0.00 0.00 0.00 0.00 0.00 0.00 0.00 0.00 0.00 0.00 0.00 0.00 0.00 0.00 0.00 0.00 0.00 0.00 0.00 0.00 0.00 0.00 0.00 0.00 0.00 0.00 0.00 0.00 0.00 0.00 0.00 0.00 0.00 0.00
0.00 0.00 0.00 0.00 0.00 0.00 0.00 0.00 0.00 0.00 0.00 0.00 0.00 0.00 0.00 0.00 0.00 0.00 0.00 0.00 0.00 0.00 0.00 0.00 0.00 0.00 0.00 0.00 0.00 0.00 0.00 0.00 0.00 0.00 0.00 0.00 0.00 0.00 0.00 0.00 0.00 0.00 0.00
0.00 0.00 0.00 0.00 0.00 0.00 0.00 0.00 0.00 0.00 0.00 0.00 0.00 0.00 0.00 0.00 0.00 0.00 0.00 0.00 0.00 0.00 0.00 0.00 0.00 0.00 0.00 0.00 0.00 0.00 0.00 0.00 0.00 0.00 0.00 0.00 0.00 0.00 0.00 0.00 0.00 0.00 0.00
0.00 0.00 0.00 0.00 0.00 0.00 0.00 0.00 0.00 0.00 0.00 0.00 0.00 0.00 0.00 0.00 0.00 0.00 0.00 0.00 0.00 0.00 0.00 0.00 0.00 0.00 0.00 0.00 0.00 0.00 0.00 0.00 0.00 0.00 0.00 0.00 0.00 0.00 0.00 0.00 0.00 0.00 0.00
0.00 0.00 0.00 0.00 0.00 0.00 0.00 0.00 0.00 0.00 0.00 0.00 0.00 0.00 0.00 0.00 0.00 0.00 0.00 0.00 0.00 0.00 0.00 0.00 0.00 0.00 0.00 0.00 0.00 0.00 0.00 0.00 0.00 0.00 0.00 0.00 0.00 0.00 0.00 0.00 0.00 0.00 0.00
0.01 0.01 0.00 0.00 0.00 0.00 0.00 0.00 0.00 0.00 0.00 0.00 0.00 0.00 0.00 0.00 0.00 0.00 0.00 0.00 0.00 0.00 0.00 0.00 0.00 0.00 0.00 0.00 0.00 0.00 0.00 0.00 0.00 0.00 0.00 0.00 0.00 0.00 0.00 0.00 0.00 0.00 0.00
0.01 0.02 0.01 0.01 0.00 0.00 0.01 0.01 0.00 0.01 0.01 0.01 0.00 0.00 0.00 0.00 0.00 0.00 0.00 0.00 0.00 0.00 0.00 0.00 0.00 0.00 0.00 0.00 0.00 0.00 0.00 0.00 0.00 0.00 0.00 0.00 0.00 0.00 0.00 0.00 0.00 0.00 0.00

GFSGL_prec_precacc24_141.txt.gz
Total_Precipitation_Accumulation
0.00 0.00 0.00 0.00 0.00 0.02 0.07 0.12 0.06 0.08 0.11 0.11 0.13 0.11 0.10 0.14 0.15 0.27 0.24 0.13 0.14 0.11 0.03 0.07 0.04 0.02 0.01 0.03 0.01 0.03 0.03 0.05 0.02 0.03 0.07 0.10 0.14 0.15 0.12 0.11 0.18 0.08 0.00
0.00 0.00 0.00 0.00 0.00 0.00 0.02 0.02 0.04 0.05 0.05 0.05 0.11 0.10 0.08 0.05 0.07 0.30 0.18 0.16 0.27 0.12 0.07 0.05 0.07 0.03 0.08 0.05 0.05 0.07 0.04 0.07 0.06 0.05 0.08 0.16 0.20 0.19 0.17 0.22 0.14 0.01 0.00
0.01 0.00 0.00 0.00 0.00 0.00 0.00 0.00 0.02 0.05 0.05 0.04 0.11 0.21 0.14 0.08 0.09 0.20 0.26 0.18 0.14 0.14 0.12 0.12 0.12 0.15 0.23 0.16 0.16 0.12 0.05 0.15 0.16 0.14 0.07 0.06 0.06 0.16 0.37 0.45 0.30 0.12 0.02
0.00 0.00 0.00 0.00 0.00 0.00 0.00 0.00 0.00 0.00 0.02 0.02 0.02 0.07 0.07 0.10 0.06 0.05 0.16 0.13 0.18 0.12 0.27 0.17 0.11 0.25 0.46 0.35 0.22 0.37 0.24 0.38 0.45 0.31 0.24 0.11 0.13 0.14 0.35 0.57 0.71 0.34 0.09
0.21 0.05 0.00 0.00 0.00 0.00 0.01 0.01 0.01 0.03 0.02 0.01 0.02 0.06 0.17 0.17 0.16 0.23 0.20 0.23 0.19 0.18 0.31 0.25 0.14 0.30 0.43 0.38 0.29 0.42 0.50 0.51 0.38 0.22 0.13 0.14 0.17 0.33 0.72 0.74 0.61 0.43 0.17
0.57 0.34 0.18 0.09 0.11 0.09 0.13 0.22 0.20 0.20 0.29 0.25 0.25 0.27 0.24 0.18 0.38 0.42 0.24 0.20 0.16 0.17 0.25 0.25 0.22 0.32 0.31 0.24 0.14 0.18 0.29 0.35 0.36 0.27 0.26 0.25 0.36 0.51 0.31 0.22 0.35 0.38 0.29
1.07 0.79 0.63 0.58 0.40 0.36 0.48 0.49 0.39 0.52 0.59 0.49 0.54 0.47 0.47 0.43 0.36 0.38 0.38 0.14 0.10 0.19 0.27 0.25 0.18 0.16 0.31 0.23 0.31 0.16 0.05 0.06 0.12 0.17 0.19 0.22 0.23 0.25 0.24 0.22 0.31 0.38 0.42
2.00 2.07 1.05 0.93 0.99 0.92 0.88 0.93 1.03 0.99 0.89 0.79 0.61 0.58 0.71 0.74 0.54 0.39 0.26 0.15 0.08 0.14 0.17 0.14 0.25 0.25 0.24 0.42 0.25 0.31 0.24 0.17 0.09 0.02 0.04 0.11 0.19 0.11 0.08 0.18 0.25 0.28 0.32
1.59 1.65 1.68 1.59 1.64 1.67 1.62 1.41 1.42 1.32 1.22 1.27 1.22 1.04 1.07 0.80 0.76 0.45 0.18 0.06 0.04 0.10 0.11 0.12 0.11 0.11 0.22 0.26 0.22 0.21 0.35 0.20 0.11 0.02 0.01 0.00 0.01 0.00 0.00 0.02 0.17 0.29 0.44
1.20 1.20 0.98 0.99 1.05 1.07 1.30 1.35 1.15 1.17 1.18 0.95 0.75 0.49 0.47 0.50 0.60 0.49 0.32 0.11 0.05 0.04 0.02 0.01 0.02 0.03 0.03 0.03 0.06 0.14 0.29 0.20 0.05 0.03 0.04 0.02 0.02 0.04 0.05 0.06 0.12 0.20 0.21
0.95 1.27 0.98 1.15 1.07 1.07 0.99 1.13 1.21 1.39 1.25 1.04 0.84 0.71 0.79 0.90 0.80 0.71 0.66 0.52 0.44 0.39 0.27 0.14 0.08 0.10 0.05 0.04 0.03 0.04 0.11 0.14 0.19 0.10 0.08 0.10 0.11 0.09 0.06 0.04 0.02 0.01 0.03
0.19 0.67 0.93 0.90 1.15 1.48 1.79 1.68 1.38 1.23 1.15 0.90 0.92 0.96 0.90 0.77 0.91 0.75 0.56 0.50 0.42 0.33 0.35 0.38 0.41 0.55 0.33 0.22 0.13 0.09 0.08 0.07 0.06 0.08 0.07 0.05 0.04 0.03 0.03 0.02 0.02 0.02 0.04
0.34 0.52 0.27 0.36 0.49 0.75 0.94 0.72 0.65 0.50 0.36 0.33 0.26 0.18 0.14 0.11 0.13 0.13 0.07 0.08 0.11 0.11 0.12 0.12 0.16 0.22 0.18 0.14 0.11 0.10 0.08 0.05 0.03 0.03 0.04 0.03 0.03 0.02 0.02 0.02 0.02 0.01 0.01
0.25 0.34 0.17 0.17 0.24 0.20 0.25 0.34 0.29 0.37 0.34 0.22 0.19 0.18 0.13 0.10 0.10 0.11 0.13 0.12 0.08 0.04 0.05 0.04 0.02 0.02 0.02 0.02 0.03 0.03 0.02 0.01 0.01 0.01 0.02 0.01 0.00 0.00 0.00 0.01 0.01 0.00 0.00
0.11 0.21 0.23 0.21 0.21 0.18 0.21 0.37 0.53 0.34 0.27 0.23 0.21 0.15 0.12 0.17 0.26 0.20 0.19 0.25 0.16 0.11 0.07 0.04 0.03 0.02 0.01 0.01 0.01 0.02 0.04 0.07 0.08 0.08 0.05 0.02 0.02 0.02 0.02 0.01 0.00 0.00 0.00
0.01 0.02 0.05 0.06 0.03 0.05 0.11 0.17 0.20 0.22 0.29 0.26 0.32 0.29 0.22 0.19 0.22 0.19 0.15 0.13 0.18 0.23 0.18 0.16 0.14 0.12 0.11 0.09 0.09 0.10 0.09 0.06 0.03 0.01 0.01 0.00 0.00 0.00 0.00 0.00 0.00 0.00 0.00
0.01 0.00 0.00 0.00 0.00 0.00 0.00 0.00 0.01 0.01 0.01 0.03 0.07 0.14 0.14 0.12 0.06 0.03 0.02 0.01 0.01 0.02 0.05 0.06 0.06 0.07 0.06 0.04 0.02 0.01 0.01 0.00 0.00 0.00 0.00 0.00 0.00 0.00 0.00 0.00 0.00 0.00 0.00
0.00 0.01 0.00 0.00 0.00 0.00 0.00 0.00 0.00 0.00 0.00 0.00 0.00 0.00 0.00 0.00 0.00 0.00 0.00 0.00 0.00 0.00 0.01 0.01 0.00 0.00 0.00 0.00 0.00 0.00 0.00 0.00 0.00 0.00 0.00 0.00 0.00 0.00 0.00 0.00 0.00 0.00 0.00
0.00 0.00 0.00 0.00 0.00 0.00 0.00 0.00 0.00 0.00 0.00 0.00 0.00 0.00 0.00 0.00 0.00 0.00 0.00 0.00 0.00 0.00 0.00 0.00 0.00 0.00 0.00 0.00 0.00 0.00 0.00 0.00 0.00 0.00 0.00 0.00 0.00 0.00 0.00 0.00 0.00 0.00 0.00
0.00 0.00 0.00 0.00 0.00 0.00 0.00 0.00 0.00 0.00 0.00 0.00 0.00 0.00 0.00 0.00 0.00 0.00 0.00 0.00 0.00 0.00 0.00 0.00 0.00 0.00 0.00 0.00 0.00 0.00 0.00 0.00 0.00 0.00 0.00 0.00 0.00 0.00 0.00 0.00 0.00 0.00 0.00
0.00 0.00 0.00 0.00 0.00 0.00 0.00 0.00 0.00 0.00 0.00 0.00 0.00 0.00 0.00 0.00 0.00 0.00 0.00 0.00 0.00 0.00 0.00 0.00 0.00 0.00 0.00 0.00 0.00 0.00 0.00 0.00 0.00 0.00 0.00 0.00 0.00 0.00 0.00 0.00 0.00 0.00 0.00
0.00 0.00 0.00 0.00 0.00 0.00 0.00 0.00 0.00 0.00 0.00 0.00 0.00 0.00 0.00 0.00 0.00 0.00 0.00 0.00 0.00 0.00 0.00 0.00 0.00 0.00 0.00 0.00 0.00 0.00 0.00 0.00 0.00 0.00 0.00 0.00 0.00 0.00 0.00 0.00 0.00 0.00 0.00
0.00 0.00 0.00 0.00 0.00 0.00 0.00 0.00 0.00 0.00 0.00 0.00 0.00 0.00 0.00 0.00 0.00 0.00 0.00 0.00 0.00 0.00 0.00 0.00 0.00 0.00 0.00 0.00 0.00 0.00 0.00 0.00 0.00 0.00 0.00 0.00 0.00 0.00 0.00 0.00 0.00 0.00 0.00
0.00 0.00 0.00 0.00 0.00 0.00 0.00 0.00 0.00 0.00 0.00 0.00 0.00 0.00 0.00 0.00 0.00 0.00 0.00 0.00 0.00 0.00 0.00 0.00 0.00 0.00 0.00 0.00 0.00 0.00 0.00 0.00 0.00 0.00 0.00 0.00 0.00 0.00 0.00 0.00 0.00 0.00 0.00
0.00 0.00 0.00 0.00 0.00 0.00 0.00 0.00 0.00 0.00 0.00 0.00 0.00 0.00 0.00 0.00 0.00 0.00 0.00 0.00 0.00 0.00 0.00 0.00 0.00 0.00 0.00 0.00 0.00 0.00 0.00 0.00 0.00 0.00 0.00 0.00 0.00 0.00 0.00 0.00 0.00 0.00 0.00
0.00 0.01 0.01 0.01 0.00 0.00 0.01 0.01 0.00 0.01 0.01 0.01 0.00 0.00 0.00 0.00 0.00 0.00 0.00 0.00 0.00 0.00 0.00 0.00 0.00 0.00 0.00 0.00 0.00 0.00 0.00 0.00 0.00 0.00 0.00 0.00 0.00 0.00 0.00 0.00 0.00 0.00 0.00

GFSGL_prec_precacc24_144.txt.gz
Total_Precipitation_Accumulation
0.00 0.00 0.00 0.00 0.00 0.02 0.07 0.12 0.06 0.08 0.11 0.11 0.13 0.07 0.05 0.13 0.15 0.27 0.26 0.13 0.14 0.12 0.03 0.07 0.07 0.05 0.02 0.04 0.04 0.04 0.03 0.05 0.02 0.03 0.07 0.10 0.15 0.15 0.14 0.11 0.19 0.09 0.00
0.00 0.00 0.00 0.00 0.00 0.00 0.02 0.02 0.04 0.05 0.05 0.05 0.11 0.10 0.05 0.04 0.06 0.25 0.17 0.16 0.27 0.12 0.07 0.05 0.07 0.03 0.09 0.05 0.05 0.10 0.06 0.07 0.06 0.05 0.08 0.16 0.20 0.19 0.17 0.22 0.15 0.05 0.00
0.00 0.00 0.00 0.00 0.00 0.00 0.00 0.00 0.02 0.05 0.05 0.04 0.11 0.22 0.13 0.08 0.09 0.18 0.23 0.20 0.14 0.14 0.12 0.12 0.12 0.15 0.23 0.16 0.16 0.13 0.06 0.15 0.16 0.15 0.08 0.06 0.06 0.16 0.37 0.45 0.31 0.13 0.03
0.00 0.00 0.00 0.00 0.00 0.00 0.00 0.00 0.00 0.00 0.02 0.02 0.02 0.07 0.08 0.11 0.11 0.05 0.12 0.12 0.18 0.12 0.27 0.17 0.10 0.21 0.44 0.34 0.22 0.36 0.24 0.38 0.45 0.31 0.24 0.12 0.13 0.14 0.35 0.57 0.71 0.34 0.09
0.21 0.05 0.00 0.00 0.00 0.00 0.01 0.01 0.01 0.03 0.01 0.01 0.02 0.10 0.24 0.20 0.13 0.16 0.17 0.22 0.19 0.18 0.31 0.25 0.13 0.31 0.46 0.37 0.28 0.41 0.47 0.50 0.38 0.22 0.15 0.16 0.17 0.33 0.72 0.74 0.61 0.38 0.16
0.61 0.36 0.20 0.10 0.08 0.06 0.12 0.22 0.20 0.17 0.16 0.18 0.21 0.26 0.28 0.24 0.32 0.31 0.17 0.17 0.15 0.16 0.25 0.28 0.28 0.37 0.43 0.27 0.10 0.15 0.30 0.35 0.35 0.27 0.26 0.25 0.36 0.51 0.31 0.22 0.35 0.37 0.28
1.00 0.64 0.54 0.53 0.33 0.32 0.39 0.41 0.34 0.46 0.49 0.43 0.48 0.44 0.46 0.42 0.37 0.35 0.43 0.17 0.08 0.15 0.22 0.26 0.19 0.18 0.36 0.24 0.31 0.12 0.03 0.06 0.11 0.17 0.19 0.24 0.26 0.29 0.28 0.26 0.33 0.38 0.42
1.90 1.91 0.94 0.85 0.85 0.80 0.76 0.84 0.91 0.85 0.73 0.67 0.54 0.49 0.67 0.78 0.67 0.51 0.36 0.22 0.08 0.13 0.16 0.13 0.24 0.24 0.23 0.42 0.26 0.31 0.24 0.17 0.09 0.02 0.04 0.11 0.21 0.13 0.10 0.21 0.27 0.29 0.33
1.58 1.44 1.28 1.18 1.54 1.73 1.60 1.39 1.32 1.14 1.05 1.12 1.09 1.00 1.11 0.91 0.88 0.48 0.21 0.06 0.04 0.10 0.10 0.11 0.11 0.09 0.21 0.25 0.20 0.21 0.35 0.21 0.12 0.04 0.01 0.01 0.01 0.00 0.00 0.02 0.17 0.30 0.45
0.90 0.94 0.73 0.75 0.94 1.10 1.35 1.31 1.14 1.12 1.10 0.97 0.81 0.59 0.53 0.46 0.47 0.46 0.30 0.10 0.07 0.07 0.02 0.01 0.03 0.04 0.04 0.03 0.06 0.15 0.31 0.21 0.05 0.03 0.04 0.03 0.04 0.07 0.11 0.13 0.23 0.34 0.38
0.86 1.22 0.87 1.06 0.98 0.98 0.95 1.18 1.14 1.30 1.29 1.18 0.92 0.72 0.62 0.68 0.63 0.58 0.59 0.49 0.42 0.37 0.26 0.14 0.08 0.11 0.05 0.04 0.03 0.04 0.11 0.14 0.20 0.10 0.08 0.11 0.12 0.09 0.07 0.06 0.04 0.04 0.05
0.12 0.57 0.88 0.77 0.80 0.90 1.10 1.37 1.95 2.03 2.05 1.71 1.54 1.40 1.06 0.80 0.90 0.73 0.55 0.50 0.43 0.32 0.34 0.38 0.41 0.55 0.33 0.22 0.13 0.10 0.08 0.07 0.06 0.08 0.07 0.05 0.04 0.03 0.03 0.02 0.02 0.02 0.04
0.32 0.50 0.25 0.35 0.38 0.33 0.53 0.53 0.64 0.82 0.77 0.90 0.61 0.48 0.32 0.18 0.15 0.13 0.07 0.08 0.12 0.11 0.12 0.12 0.16 0.22 0.18 0.14 0.11 0.09 0.07 0.05 0.03 0.03 0.04 0.03 0.03 0.02 0.02 0.02 0.02 0.01 0.01
0.25 0.34 0.13 0.15 0.19 0.13 0.12 0.13 0.10 0.16 0.25 0.23 0.22 0.17 0.14 0.10 0.09 0.11 0.13 0.12 0.07 0.04 0.04 0.03 0.02 0.02 0.02 0.02 0.03 0.03 0.02 0.01 0.01 0.01 0.02 0.01 0.00 0.00 0.00 0.01 0.01 0.00 0.00
0.19 0.30 0.20 0.13 0.14 0.10 0.11 0.11 0.12 0.16 0.17 0.18 0.19 0.12 0.10 0.16 0.25 0.20 0.19 0.25 0.16 0.11 0.07 0.04 0.03 0.02 0.01 0.01 0.01 0.02 0.04 0.07 0.08 0.08 0.05 0.02 0.02 0.02 0.02 0.01 0.00 0.00 0.00
0.09 0.10 0.09 0.05 0.03 0.02 0.04 0.07 0.08 0.10 0.14 0.14 0.20 0.23 0.20 0.17 0.20 0.19 0.15 0.13 0.18 0.23 0.18 0.16 0.14 0.12 0.11 0.09 0.09 0.10 0.09 0.06 0.03 0.01 0.01 0.00 0.00 0.00 0.00 0.00 0.00 0.00 0.00
0.01 0.01 0.00 0.00 0.00 0.00 0.00 0.00 0.00 0.00 0.01 0.02 0.06 0.10 0.11 0.09 0.05 0.03 0.02 0.01 0.01 0.02 0.05 0.06 0.06 0.07 0.06 0.04 0.02 0.01 0.01 0.00 0.00 0.00 0.00 0.00 0.00 0.00 0.00 0.00 0.00 0.00 0.00
0.00 0.01 0.01 0.01 0.00 0.00 0.00 0.00 0.00 0.00 0.00 0.00 0.00 0.00 0.00 0.00 0.00 0.00 0.00 0.00 0.00 0.00 0.01 0.01 0.00 0.00 0.00 0.00 0.00 0.00 0.00 0.00 0.00 0.00 0.00 0.00 0.00 0.00 0.00 0.00 0.00 0.00 0.00
0.00 0.00 0.00 0.00 0.00 0.00 0.00 0.00 0.00 0.00 0.00 0.00 0.00 0.00 0.00 0.00 0.00 0.00 0.00 0.00 0.00 0.00 0.00 0.00 0.00 0.00 0.00 0.00 0.00 0.00 0.00 0.00 0.00 0.00 0.00 0.00 0.00 0.00 0.00 0.00 0.00 0.00 0.00
0.00 0.00 0.00 0.00 0.00 0.00 0.00 0.00 0.00 0.00 0.00 0.00 0.00 0.00 0.00 0.00 0.00 0.00 0.00 0.00 0.00 0.00 0.00 0.00 0.00 0.00 0.00 0.00 0.00 0.00 0.00 0.00 0.00 0.00 0.00 0.00 0.00 0.00 0.00 0.00 0.00 0.00 0.00
0.00 0.00 0.00 0.00 0.00 0.00 0.00 0.00 0.00 0.00 0.00 0.00 0.00 0.00 0.00 0.00 0.00 0.00 0.00 0.00 0.00 0.00 0.00 0.00 0.00 0.00 0.00 0.00 0.00 0.00 0.00 0.00 0.00 0.00 0.00 0.00 0.00 0.00 0.00 0.00 0.00 0.00 0.00
0.00 0.00 0.00 0.00 0.00 0.00 0.00 0.00 0.00 0.00 0.00 0.00 0.00 0.00 0.00 0.00 0.00 0.00 0.00 0.00 0.00 0.00 0.00 0.00 0.00 0.00 0.00 0.00 0.00 0.00 0.00 0.00 0.00 0.00 0.00 0.00 0.00 0.00 0.00 0.00 0.00 0.00 0.00
0.00 0.00 0.00 0.00 0.00 0.00 0.00 0.00 0.00 0.00 0.00 0.00 0.00 0.00 0.00 0.00 0.00 0.00 0.00 0.00 0.00 0.00 0.00 0.00 0.00 0.00 0.00 0.00 0.00 0.00 0.00 0.00 0.00 0.00 0.00 0.00 0.00 0.00 0.00 0.00 0.00 0.00 0.00
0.00 0.00 0.00 0.00 0.00 0.00 0.00 0.00 0.00 0.00 0.00 0.00 0.00 0.00 0.00 0.00 0.00 0.00 0.00 0.00 0.00 0.00 0.00 0.00 0.00 0.00 0.00 0.00 0.00 0.00 0.00 0.00 0.00 0.00 0.00 0.00 0.00 0.00 0.00 0.00 0.00 0.00 0.00
0.00 0.00 0.00 0.00 0.00 0.00 0.00 0.00 0.00 0.00 0.00 0.00 0.00 0.00 0.00 0.00 0.00 0.00 0.00 0.00 0.00 0.00 0.00 0.00 0.00 0.00 0.00 0.00 0.00 0.00 0.00 0.00 0.00 0.00 0.00 0.00 0.00 0.00 0.00 0.00 0.00 0.00 0.00
0.00 0.01 0.01 0.01 0.00 0.00 0.01 0.01 0.00 0.01 0.01 0.01 0.00 0.00 0.00 0.00 0.00 0.00 0.00 0.00 0.00 0.00 0.00 0.00 0.00 0.00 0.00 0.00 0.00 0.00 0.00 0.00 0.00 0.00 0.00 0.00 0.00 0.00 0.00 0.00 0.00 0.00 0.00

GFSGL_prec_precacc24_147.txt.gz
Total_Precipitation_Accumulation
0.00 0.00 0.00 0.00 0.00 0.02 0.07 0.12 0.06 0.08 0.11 0.11 0.13 0.07 0.05 0.13 0.15 0.23 0.20 0.10 0.17 0.16 0.04 0.06 0.06 0.06 0.03 0.09 0.09 0.07 0.15 0.15 0.04 0.04 0.07 0.09 0.11 0.12 0.13 0.11 0.19 0.09 0.00
0.00 0.00 0.00 0.00 0.00 0.00 0.02 0.02 0.04 0.05 0.05 0.05 0.11 0.10 0.05 0.04 0.06 0.22 0.15 0.11 0.22 0.11 0.07 0.04 0.05 0.03 0.08 0.04 0.04 0.14 0.15 0.15 0.11 0.06 0.08 0.15 0.17 0.16 0.16 0.22 0.15 0.05 0.00
0.00 0.00 0.00 0.00 0.00 0.00 0.00 0.00 0.02 0.05 0.05 0.05 0.12 0.22 0.14 0.07 0.08 0.18 0.24 0.15 0.08 0.09 0.10 0.11 0.08 0.13 0.18 0.12 0.13 0.10 0.06 0.12 0.16 0.09 0.07 0.06 0.06 0.16 0.37 0.45 0.31 0.13 0.03
0.00 0.00 0.00 0.00 0.00 0.00 0.00 0.00 0.00 0.00 0.02 0.03 0.06 0.11 0.11 0.17 0.10 0.10 0.12 0.14 0.23 0.09 0.18 0.09 0.05 0.15 0.34 0.30 0.20 0.30 0.18 0.29 0.38 0.29 0.24 0.12 0.15 0.15 0.35 0.57 0.71 0.34 0.09
0.21 0.05 0.00 0.00 0.00 0.00 0.01 0.01 0.01 0.03 0.01 0.02 0.07 0.16 0.31 0.26 0.18 0.21 0.20 0.20 0.14 0.15 0.30 0.24 0.19 0.32 0.47 0.42 0.34 0.44 0.40 0.42 0.32 0.21 0.16 0.16 0.18 0.34 0.73 0.74 0.60 0.38 0.16
0.60 0.35 0.19 0.10 0.08 0.06 0.11 0.21 0.20 0.17 0.16 0.18 0.21 0.27 0.32 0.30 0.41 0.34 0.22 0.25 0.17 0.17 0.26 0.25 0.26 0.36 0.46 0.30 0.11 0.13 0.23 0.27 0.29 0.22 0.22 0.23 0.37 0.52 0.32 0.22 0.35 0.35 0.29
0.99 0.65 0.49 0.43 0.25 0.20 0.26 0.25 0.26 0.37 0.42 0.40 0.47 0.43 0.45 0.45 0.39 0.38 0.47 0.25 0.13 0.16 0.20 0.21 0.15 0.17 0.38 0.26 0.31 0.11 0.01 0.00 0.05 0.13 0.14 0.21 0.26 0.29 0.28 0.27 0.34 0.39 0.43
1.88 1.89 0.88 0.74 0.66 0.55 0.50 0.58 0.69 0.66 0.57 0.58 0.50 0.47 0.56 0.70 0.64 0.56 0.50 0.31 0.09 0.14 0.18 0.13 0.22 0.21 0.23 0.42 0.26 0.31 0.24 0.17 0.09 0.02 0.04 0.11 0.21 0.13 0.10 0.21 0.27 0.30 0.34
1.49 1.35 1.19 1.05 1.20 1.11 0.98 0.75 0.67 0.79 0.94 1.00 0.92 0.77 0.82 0.60 0.73 0.56 0.33 0.17 0.14 0.16 0.15 0.14 0.11 0.09 0.21 0.25 0.20 0.21 0.35 0.21 0.13 0.07 0.04 0.03 0.02 0.01 0.00 0.02 0.17 0.31 0.47
0.85 0.90 0.67 0.62 0.71 0.78 0.87 0.89 0.89 0.86 0.94 0.89 0.75 0.57 0.51 0.41 0.38 0.39 0.25 0.10 0.07 0.07 0.03 0.03 0.04 0.04 0.04 0.03 0.06 0.14 0.31 0.22 0.07 0.05 0.07 0.04 0.04 0.07 0.11 0.13 0.24 0.36 0.40
0.87 1.22 0.85 0.94 0.79 0.82 0.83 1.04 0.94 0.99 0.99 1.05 0.89 0.70 0.57 0.46 0.28 0.25 0.31 0.32 0.32 0.34 0.23 0.11 0.07 0.11 0.05 0.04 0.03 0.04 0.11 0.14 0.20 0.10 0.08 0.11 0.12 0.09 0.07 0.06 0.04 0.04 0.05
0.12 0.57 0.87 0.75 0.73 0.71 0.85 1.17 1.79 1.92 1.90 1.72 1.72 1.57 1.20 0.87 0.73 0.48 0.30 0.26 0.30 0.26 0.32 0.34 0.38 0.54 0.33 0.22 0.13 0.10 0.08 0.07 0.06 0.08 0.07 0.05 0.04 0.03 0.03 0.02 0.02 0.02 0.04
0.33 0.50 0.25 0.37 0.43 0.38 0.52 0.54 0.64 0.95 0.96 1.04 1.02 0.97 0.96 0.73 0.47 0.32 0.17 0.12 0.14 0.12 0.11 0.12 0.16 0.21 0.18 0.14 0.11 0.09 0.07 0.05 0.03 0.03 0.04 0.03 0.03 0.02 0.02 0.02 0.02 0.01 0.01
0.29 0.36 0.13 0.12 0.16 0.16 0.13 0.14 0.12 0.13 0.17 0.18 0.18 0.20 0.24 0.21 0.20 0.16 0.12 0.13 0.09 0.05 0.04 0.02 0.01 0.01 0.02 0.02 0.03 0.03 0.02 0.01 0.01 0.01 0.02 0.01 0.00 0.00 0.00 0.01 0.01 0.00 0.00
0.23 0.36 0.18 0.08 0.09 0.05 0.07 0.06 0.04 0.04 0.08 0.05 0.06 0.07 0.06 0.11 0.25 0.22 0.16 0.21 0.16 0.11 0.07 0.04 0.03 0.02 0.01 0.01 0.01 0.02 0.04 0.07 0.08 0.08 0.05 0.02 0.02 0.02 0.02 0.01 0.00 0.00 0.00
0.15 0.23 0.15 0.04 0.04 0.02 0.08 0.09 0.07 0.06 0.11 0.11 0.08 0.10 0.07 0.05 0.06 0.15 0.15 0.12 0.17 0.22 0.18 0.16 0.14 0.12 0.11 0.09 0.09 0.10 0.09 0.06 0.03 0.01 0.01 0.00 0.00 0.00 0.00 0.00 0.00 0.00 0.00
0.03 0.09 0.11 0.08 0.07 0.05 0.05 0.03 0.01 0.00 0.01 0.01 0.02 0.02 0.02 0.01 0.02 0.02 0.02 0.01 0.01 0.02 0.05 0.06 0.06 0.07 0.06 0.04 0.02 0.01 0.01 0.00 0.00 0.00 0.00 0.00 0.00 0.00 0.00 0.00 0.00 0.00 0.00
0.00 0.01 0.01 0.02 0.00 0.01 0.00 0.00 0.00 0.00 0.00 0.00 0.00 0.00 0.00 0.00 0.00 0.00 0.00 0.00 0.00 0.00 0.01 0.01 0.00 0.00 0.00 0.00 0.00 0.00 0.00 0.00 0.00 0.00 0.00 0.00 0.00 0.00 0.00 0.00 0.00 0.00 0.00
0.00 0.00 0.00 0.00 0.00 0.00 0.00 0.00 0.00 0.00 0.00 0.00 0.00 0.00 0.00 0.00 0.00 0.00 0.00 0.00 0.00 0.00 0.00 0.00 0.00 0.00 0.00 0.00 0.00 0.00 0.00 0.00 0.00 0.00 0.00 0.00 0.00 0.00 0.00 0.00 0.00 0.00 0.00
0.01 0.01 0.00 0.00 0.00 0.00 0.00 0.00 0.00 0.00 0.00 0.00 0.00 0.00 0.00 0.00 0.00 0.00 0.00 0.00 0.00 0.00 0.00 0.00 0.00 0.00 0.00 0.00 0.00 0.00 0.00 0.00 0.00 0.00 0.00 0.00 0.00 0.00 0.00 0.00 0.00 0.00 0.00
0.00 0.00 0.00 0.00 0.00 0.00 0.00 0.00 0.00 0.00 0.00 0.00 0.00 0.00 0.00 0.00 0.00 0.00 0.00 0.00 0.00 0.00 0.00 0.00 0.00 0.00 0.00 0.00 0.00 0.00 0.00 0.00 0.00 0.00 0.00 0.00 0.00 0.00 0.00 0.00 0.00 0.00 0.00
0.00 0.00 0.00 0.00 0.00 0.00 0.00 0.00 0.00 0.00 0.00 0.00 0.00 0.00 0.00 0.00 0.00 0.00 0.00 0.00 0.00 0.00 0.00 0.00 0.00 0.00 0.00 0.00 0.00 0.00 0.00 0.00 0.00 0.00 0.00 0.00 0.00 0.00 0.00 0.00 0.00 0.00 0.00
0.00 0.00 0.00 0.00 0.00 0.00 0.00 0.00 0.00 0.00 0.00 0.00 0.00 0.00 0.00 0.00 0.00 0.00 0.00 0.00 0.00 0.00 0.00 0.00 0.00 0.00 0.00 0.00 0.00 0.00 0.00 0.00 0.00 0.00 0.00 0.00 0.00 0.00 0.00 0.00 0.00 0.00 0.00
0.00 0.00 0.00 0.00 0.00 0.00 0.00 0.00 0.00 0.00 0.00 0.00 0.00 0.00 0.00 0.00 0.00 0.00 0.00 0.00 0.00 0.00 0.00 0.00 0.00 0.00 0.00 0.00 0.00 0.00 0.00 0.00 0.00 0.00 0.00 0.00 0.00 0.00 0.00 0.00 0.00 0.00 0.00
0.00 0.00 0.00 0.00 0.00 0.00 0.00 0.00 0.00 0.00 0.00 0.00 0.00 0.00 0.00 0.00 0.00 0.00 0.00 0.00 0.00 0.00 0.00 0.00 0.00 0.00 0.00 0.00 0.00 0.00 0.00 0.00 0.00 0.00 0.00 0.00 0.00 0.00 0.00 0.00 0.00 0.00 0.00
0.00 0.01 0.01 0.01 0.00 0.00 0.01 0.01 0.00 0.01 0.01 0.01 0.00 0.00 0.00 0.00 0.00 0.00 0.00 0.00 0.00 0.00 0.00 0.00 0.00 0.00 0.00 0.00 0.00 0.00 0.00 0.00 0.00 0.00 0.00 0.00 0.00 0.00 0.00 0.00 0.00 0.00 0.00

GFSGL_prec_precacc24_150.txt.gz
Total_Precipitation_Accumulation
0.00 0.00 0.00 0.00 0.00 0.02 0.06 0.07 0.06 0.08 0.11 0.14 0.17 0.11 0.11 0.16 0.14 0.23 0.28 0.14 0.21 0.17 0.06 0.08 0.06 0.06 0.04 0.11 0.15 0.12 0.26 0.22 0.07 0.04 0.07 0.07 0.10 0.19 0.14 0.11 0.17 0.07 0.00
0.00 0.00 0.00 0.00 0.00 0.00 0.02 0.02 0.04 0.05 0.05 0.05 0.11 0.13 0.11 0.12 0.08 0.15 0.16 0.11 0.23 0.13 0.08 0.02 0.02 0.02 0.06 0.05 0.04 0.14 0.16 0.16 0.14 0.06 0.10 0.17 0.22 0.16 0.19 0.23 0.15 0.05 0.00
0.00 0.00 0.00 0.00 0.00 0.00 0.00 0.00 0.02 0.05 0.05 0.05 0.14 0.31 0.25 0.15 0.14 0.12 0.21 0.15 0.09 0.13 0.11 0.12 0.08 0.10 0.15 0.11 0.10 0.08 0.06 0.07 0.15 0.07 0.05 0.06 0.08 0.18 0.38 0.45 0.30 0.13 0.03
0.00 0.00 0.00 0.00 0.00 0.00 0.00 0.00 0.00 0.00 0.02 0.03 0.08 0.15 0.17 0.23 0.16 0.16 0.18 0.19 0.22 0.08 0.17 0.11 0.05 0.16 0.31 0.28 0.18 0.26 0.17 0.21 0.32 0.28 0.22 0.12 0.16 0.16 0.35 0.56 0.74 0.34 0.09
0.21 0.05 0.00 0.00 0.00 0.00 0.01 0.01 0.01 0.03 0.01 0.02 0.09 0.18 0.32 0.29 0.25 0.33 0.27 0.15 0.16 0.15 0.27 0.18 0.15 0.31 0.49 0.46 0.35 0.43 0.38 0.41 0.37 0.28 0.21 0.19 0.17 0.37 0.76 0.76 0.59 0.42 0.21
0.59 0.35 0.19 0.09 0.07 0.04 0.06 0.10 0.08 0.07 0.09 0.13 0.18 0.25 0.33 0.31 0.42 0.35 0.25 0.32 0.28 0.18 0.25 0.23 0.30 0.37 0.43 0.28 0.07 0.06 0.14 0.19 0.24 0.25 0.27 0.25 0.35 0.52 0.34 0.24 0.34 0.35 0.40
1.00 0.65 0.48 0.39 0.23 0.18 0.20 0.11 0.12 0.22 0.26 0.27 0.38 0.39 0.43 0.45 0.39 0.37 0.47 0.37 0.25 0.19 0.23 0.20 0.17 0.17 0.31 0.25 0.30 0.11 0.00 0.00 0.02 0.08 0.13 0.20 0.23 0.29 0.28 0.27 0.35 0.38 0.44
1.88 1.89 0.89 0.74 0.65 0.53 0.48 0.52 0.49 0.37 0.26 0.29 0.32 0.44 0.53 0.68 0.63 0.54 0.51 0.38 0.14 0.17 0.18 0.13 0.19 0.18 0.21 0.41 0.28 0.31 0.24 0.17 0.09 0.01 0.03 0.10 0.20 0.13 0.10 0.20 0.22 0.27 0.34
1.47 1.34 1.19 1.06 1.21 1.12 0.98 0.76 0.60 0.47 0.52 0.67 0.70 0.64 0.75 0.55 0.69 0.51 0.33 0.20 0.15 0.16 0.16 0.15 0.13 0.11 0.21 0.26 0.21 0.21 0.35 0.21 0.13 0.08 0.05 0.03 0.02 0.01 0.00 0.02 0.13 0.26 0.39
0.84 0.90 0.67 0.63 0.72 0.79 0.88 0.90 0.85 0.78 0.69 0.56 0.48 0.40 0.43 0.38 0.34 0.33 0.19 0.06 0.05 0.07 0.04 0.05 0.06 0.06 0.04 0.03 0.07 0.14 0.31 0.22 0.07 0.05 0.07 0.04 0.04 0.07 0.11 0.13 0.22 0.35 0.39
0.86 1.23 0.87 0.95 0.79 0.81 0.81 1.01 0.87 0.87 0.75 0.61 0.46 0.33 0.26 0.25 0.20 0.21 0.21 0.15 0.19 0.24 0.19 0.11 0.07 0.11 0.05 0.04 0.03 0.04 0.11 0.14 0.20 0.10 0.08 0.11 0.12 0.09 0.07 0.06 0.04 0.04 0.05
0.11 0.57 0.87 0.76 0.75 0.73 0.82 1.05 1.61 1.74 1.69 1.40 1.22 1.00 0.82 0.65 0.62 0.44 0.26 0.18 0.18 0.14 0.20 0.29 0.36 0.51 0.31 0.22 0.13 0.10 0.08 0.07 0.06 0.08 0.07 0.05 0.04 0.03 0.03 0.02 0.02 0.02 0.04
0.32 0.48 0.23 0.35 0.45 0.40 0.48 0.55 0.65 0.97 0.95 1.02 1.01 0.95 0.92 0.71 0.51 0.33 0.16 0.10 0.10 0.11 0.11 0.11 0.14 0.18 0.15 0.12 0.10 0.09 0.07 0.05 0.03 0.03 0.04 0.03 0.03 0.02 0.02 0.02 0.02 0.01 0.01
0.28 0.32 0.11 0.11 0.15 0.16 0.16 0.25 0.28 0.28 0.26 0.24 0.24 0.26 0.29 0.25 0.21 0.20 0.18 0.15 0.09 0.06 0.06 0.05 0.03 0.02 0.02 0.02 0.03 0.03 0.02 0.01 0.01 0.01 0.02 0.01 0.00 0.00 0.00 0.01 0.01 0.00 0.00
0.27 0.36 0.18 0.08 0.08 0.05 0.06 0.06 0.07 0.07 0.07 0.06 0.07 0.07 0.08 0.09 0.14 0.14 0.12 0.11 0.08 0.11 0.09 0.05 0.03 0.01 0.00 0.00 0.01 0.02 0.04 0.07 0.08 0.08 0.05 0.02 0.02 0.02 0.02 0.01 0.00 0.00 0.00
0.21 0.29 0.17 0.05 0.04 0.03 0.09 0.09 0.07 0.07 0.09 0.09 0.05 0.04 0.03 0.03 0.03 0.06 0.06 0.05 0.09 0.18 0.15 0.13 0.12 0.11 0.11 0.09 0.09 0.10 0.09 0.06 0.03 0.01 0.01 0.00 0.00 0.00 0.00 0.00 0.00 0.00 0.00
0.11 0.22 0.20 0.13 0.11 0.09 0.10 0.10 0.08 0.04 0.05 0.04 0.03 0.02 0.01 0.01 0.01 0.01 0.01 0.01 0.01 0.00 0.00 0.00 0.02 0.06 0.06 0.04 0.02 0.01 0.00 0.00 0.00 0.00 0.00 0.00 0.00 0.00 0.00 0.00 0.00 0.00 0.00
0.01 0.08 0.10 0.08 0.05 0.07 0.06 0.06 0.05 0.02 0.00 0.01 0.00 0.00 0.00 0.00 0.00 0.00 0.00 0.00 0.00 0.00 0.00 0.00 0.00 0.00 0.00 0.00 0.00 0.00 0.00 0.00 0.00 0.00 0.00 0.00 0.00 0.00 0.00 0.00 0.00 0.00 0.00
0.00 0.00 0.01 0.01 0.02 0.03 0.01 0.01 0.00 0.00 0.00 0.00 0.01 0.00 0.00 0.00 0.00 0.00 0.00 0.00 0.00 0.00 0.00 0.00 0.00 0.00 0.00 0.00 0.00 0.00 0.00 0.00 0.00 0.00 0.00 0.00 0.00 0.00 0.00 0.00 0.00 0.00 0.00
0.02 0.01 0.00 0.01 0.02 0.00 0.02 0.03 0.00 0.00 0.00 0.00 0.00 0.00 0.00 0.00 0.00 0.00 0.00 0.00 0.00 0.00 0.00 0.00 0.00 0.00 0.00 0.00 0.00 0.00 0.00 0.00 0.00 0.00 0.00 0.00 0.00 0.00 0.00 0.00 0.00 0.00 0.00
0.01 0.01 0.01 0.00 0.01 0.00 0.00 0.00 0.00 0.00 0.00 0.00 0.00 0.00 0.00 0.00 0.00 0.00 0.00 0.00 0.00 0.00 0.00 0.00 0.00 0.00 0.00 0.00 0.00 0.00 0.00 0.00 0.00 0.00 0.00 0.00 0.00 0.00 0.00 0.00 0.00 0.00 0.00
0.00 0.00 0.00 0.00 0.00 0.00 0.00 0.00 0.00 0.00 0.00 0.00 0.00 0.00 0.00 0.00 0.00 0.00 0.00 0.00 0.00 0.00 0.00 0.00 0.00 0.00 0.00 0.00 0.00 0.00 0.00 0.00 0.00 0.00 0.00 0.00 0.00 0.00 0.00 0.00 0.00 0.00 0.00
0.00 0.00 0.00 0.00 0.00 0.00 0.00 0.00 0.00 0.00 0.00 0.00 0.00 0.00 0.00 0.00 0.00 0.00 0.00 0.00 0.00 0.00 0.00 0.00 0.00 0.00 0.00 0.00 0.00 0.00 0.00 0.00 0.00 0.00 0.00 0.00 0.00 0.00 0.00 0.00 0.00 0.00 0.00
0.00 0.00 0.00 0.00 0.00 0.00 0.00 0.00 0.00 0.00 0.00 0.00 0.00 0.00 0.00 0.00 0.00 0.00 0.00 0.00 0.00 0.00 0.00 0.00 0.00 0.00 0.00 0.00 0.00 0.00 0.00 0.00 0.00 0.00 0.00 0.00 0.00 0.00 0.00 0.00 0.00 0.00 0.00
0.00 0.00 0.00 0.00 0.00 0.00 0.00 0.00 0.00 0.00 0.00 0.00 0.00 0.00 0.00 0.00 0.00 0.00 0.00 0.00 0.00 0.00 0.00 0.00 0.00 0.00 0.00 0.00 0.00 0.00 0.00 0.00 0.00 0.00 0.00 0.00 0.00 0.00 0.00 0.00 0.00 0.00 0.00
0.00 0.00 0.00 0.00 0.00 0.00 0.00 0.00 0.00 0.00 0.00 0.00 0.00 0.00 0.00 0.00 0.00 0.00 0.00 0.00 0.00 0.00 0.00 0.00 0.00 0.00 0.00 0.00 0.00 0.00 0.00 0.00 0.00 0.00 0.00 0.00 0.00 0.00 0.00 0.00 0.00 0.00 0.00

GFSGL_prec_precacc24_153.txt.gz
Total_Precipitation_Accumulation
0.00 0.00 0.00 0.00 0.00 0.02 0.06 0.07 0.06 0.08 0.12 0.14 0.17 0.12 0.13 0.11 0.07 0.21 0.24 0.14 0.19 0.18 0.07 0.10 0.07 0.06 0.04 0.11 0.16 0.14 0.30 0.26 0.13 0.05 0.07 0.05 0.09 0.22 0.20 0.20 0.09 0.05 0.00
0.00 0.00 0.00 0.00 0.00 0.00 0.02 0.02 0.04 0.05 0.05 0.06 0.10 0.13 0.17 0.13 0.10 0.18 0.16 0.10 0.19 0.16 0.09 0.03 0.01 0.02 0.06 0.06 0.04 0.16 0.16 0.16 0.16 0.09 0.10 0.14 0.22 0.17 0.25 0.31 0.17 0.05 0.00
0.00 0.00 0.00 0.00 0.00 0.00 0.00 0.00 0.02 0.05 0.05 0.05 0.14 0.31 0.25 0.15 0.14 0.12 0.29 0.17 0.08 0.13 0.11 0.16 0.13 0.08 0.11 0.11 0.10 0.07 0.06 0.04 0.16 0.06 0.05 0.06 0.10 0.21 0.39 0.47 0.33 0.15 0.03
0.00 0.00 0.00 0.00 0.00 0.00 0.00 0.00 0.00 0.00 0.02 0.03 0.08 0.13 0.16 0.23 0.16 0.16 0.22 0.20 0.18 0.08 0.20 0.21 0.10 0.15 0.24 0.27 0.23 0.28 0.21 0.19 0.33 0.31 0.25 0.15 0.19 0.26 0.40 0.58 0.79 0.42 0.15
0.21 0.05 0.00 0.00 0.00 0.00 0.01 0.01 0.00 0.01 0.00 0.01 0.08 0.14 0.29 0.28 0.25 0.33 0.26 0.13 0.17 0.16 0.29 0.18 0.18 0.34 0.43 0.38 0.33 0.40 0.44 0.45 0.47 0.35 0.30 0.27 0.22 0.44 0.84 0.80 0.59 0.46 0.30
0.60 0.35 0.19 0.09 0.06 0.04 0.05 0.09 0.06 0.04 0.06 0.08 0.10 0.14 0.24 0.30 0.42 0.35 0.25 0.30 0.24 0.18 0.24 0.19 0.30 0.38 0.46 0.29 0.07 0.04 0.06 0.12 0.19 0.23 0.30 0.26 0.29 0.44 0.38 0.28 0.34 0.37 0.52
1.03 0.69 0.49 0.41 0.23 0.18 0.20 0.10 0.11 0.21 0.23 0.23 0.29 0.27 0.33 0.38 0.38 0.37 0.47 0.37 0.24 0.18 0.22 0.17 0.20 0.21 0.26 0.22 0.23 0.11 0.00 0.00 0.01 0.05 0.14 0.18 0.19 0.25 0.26 0.25 0.35 0.32 0.37
1.85 1.94 0.96 0.81 0.69 0.55 0.49 0.53 0.51 0.42 0.29 0.27 0.23 0.31 0.45 0.60 0.54 0.48 0.51 0.38 0.14 0.16 0.18 0.13 0.17 0.18 0.14 0.31 0.23 0.27 0.20 0.16 0.09 0.01 0.01 0.07 0.14 0.09 0.10 0.15 0.13 0.18 0.30
1.40 1.25 1.18 1.08 1.23 1.12 1.00 0.80 0.67 0.52 0.59 0.70 0.71 0.60 0.69 0.47 0.63 0.47 0.32 0.20 0.16 0.16 0.13 0.14 0.09 0.07 0.12 0.16 0.17 0.15 0.27 0.19 0.13 0.08 0.05 0.03 0.02 0.01 0.00 0.01 0.04 0.17 0.24
0.84 0.89 0.67 0.65 0.75 0.86 0.96 1.00 1.00 0.92 0.77 0.61 0.53 0.45 0.46 0.40 0.31 0.29 0.17 0.06 0.05 0.07 0.04 0.05 0.06 0.05 0.03 0.02 0.07 0.11 0.26 0.19 0.07 0.05 0.07 0.04 0.04 0.07 0.11 0.12 0.19 0.27 0.30
0.85 1.20 0.87 0.96 0.78 0.79 0.79 1.02 0.98 1.01 0.82 0.60 0.49 0.39 0.27 0.21 0.13 0.13 0.19 0.13 0.16 0.19 0.14 0.07 0.05 0.10 0.05 0.04 0.03 0.04 0.11 0.14 0.20 0.10 0.08 0.11 0.12 0.09 0.07 0.06 0.04 0.04 0.05
0.13 0.57 0.87 0.76 0.76 0.75 0.85 1.07 1.63 1.77 1.70 1.36 1.12 0.85 0.50 0.32 0.25 0.25 0.18 0.10 0.09 0.06 0.07 0.09 0.15 0.31 0.25 0.19 0.12 0.09 0.08 0.06 0.06 0.07 0.07 0.05 0.03 0.03 0.03 0.02 0.02 0.02 0.04
0.36 0.47 0.23 0.36 0.46 0.41 0.48 0.55 0.66 0.98 0.96 1.03 1.00 0.95 0.94 0.71 0.49 0.34 0.18 0.12 0.09 0.06 0.05 0.05 0.08 0.11 0.07 0.05 0.05 0.06 0.04 0.02 0.02 0.01 0.01 0.01 0.02 0.02 0.02 0.02 0.02 0.01 0.01
0.35 0.31 0.11 0.11 0.15 0.17 0.16 0.25 0.29 0.33 0.38 0.40 0.36 0.31 0.32 0.28 0.25 0.25 0.25 0.22 0.16 0.10 0.08 0.05 0.02 0.01 0.01 0.01 0.02 0.01 0.00 0.01 0.01 0.01 0.02 0.01 0.00 0.00 0.00 0.01 0.01 0.00 0.00
0.28 0.35 0.18 0.08 0.07 0.05 0.06 0.06 0.07 0.09 0.17 0.28 0.38 0.43 0.40 0.32 0.28 0.28 0.17 0.12 0.11 0.11 0.09 0.06 0.04 0.02 0.01 0.01 0.01 0.01 0.03 0.07 0.08 0.08 0.05 0.02 0.02 0.02 0.02 0.01 0.00 0.00 0.00
0.22 0.33 0.23 0.05 0.05 0.05 0.11 0.10 0.07 0.07 0.10 0.14 0.16 0.13 0.13 0.11 0.11 0.09 0.09 0.09 0.08 0.08 0.07 0.05 0.03 0.03 0.03 0.04 0.04 0.05 0.04 0.04 0.03 0.01 0.00 0.00 0.00 0.00 0.00 0.00 0.00 0.00 0.00
0.14 0.29 0.29 0.15 0.12 0.13 0.16 0.12 0.10 0.06 0.07 0.05 0.05 0.04 0.05 0.05 0.04 0.03 0.02 0.01 0.01 0.00 0.00 0.00 0.00 0.00 0.01 0.01 0.01 0.01 0.00 0.00 0.00 0.00 0.00 0.00 0.00 0.00 0.00 0.00 0.00 0.00 0.00
0.01 0.13 0.22 0.18 0.07 0.08 0.09 0.11 0.09 0.08 0.08 0.05 0.02 0.01 0.02 0.05 0.04 0.02 0.02 0.01 0.00 0.00 0.00 0.00 0.00 0.00 0.00 0.00 0.00 0.00 0.00 0.00 0.00 0.00 0.00 0.00 0.00 0.00 0.00 0.00 0.00 0.00 0.00
0.00 0.00 0.04 0.05 0.07 0.07 0.05 0.05 0.06 0.05 0.04 0.03 0.02 0.01 0.02 0.04 0.04 0.02 0.01 0.00 0.00 0.00 0.00 0.00 0.00 0.00 0.00 0.00 0.00 0.00 0.00 0.00 0.00 0.00 0.00 0.00 0.00 0.00 0.00 0.00 0.00 0.00 0.00
0.02 0.01 0.02 0.06 0.08 0.08 0.10 0.09 0.04 0.03 0.02 0.02 0.01 0.01 0.00 0.00 0.01 0.00 0.00 0.00 0.00 0.00 0.00 0.00 0.00 0.00 0.00 0.00 0.00 0.00 0.00 0.00 0.00 0.00 0.00 0.00 0.00 0.00 0.00 0.00 0.00 0.00 0.00
0.01 0.01 0.01 0.02 0.04 0.04 0.05 0.03 0.03 0.01 0.01 0.01 0.01 0.00 0.00 0.00 0.00 0.00 0.00 0.00 0.00 0.00 0.00 0.00 0.00 0.00 0.00 0.00 0.00 0.00 0.00 0.00 0.00 0.00 0.00 0.00 0.00 0.00 0.00 0.00 0.00 0.00 0.00
0.00 0.01 0.01 0.00 0.00 0.00 0.00 0.00 0.00 0.00 0.00 0.00 0.00 0.00 0.00 0.00 0.00 0.00 0.00 0.00 0.00 0.00 0.00 0.00 0.00 0.00 0.00 0.00 0.00 0.00 0.00 0.00 0.00 0.00 0.00 0.00 0.00 0.00 0.00 0.00 0.00 0.00 0.00
0.00 0.00 0.00 0.00 0.00 0.00 0.00 0.00 0.00 0.00 0.00 0.00 0.00 0.00 0.00 0.00 0.00 0.00 0.00 0.00 0.00 0.00 0.00 0.00 0.00 0.00 0.00 0.00 0.00 0.00 0.00 0.00 0.00 0.00 0.00 0.00 0.00 0.00 0.00 0.00 0.00 0.00 0.00
0.00 0.00 0.00 0.00 0.00 0.00 0.00 0.00 0.00 0.00 0.00 0.00 0.00 0.00 0.00 0.00 0.00 0.00 0.00 0.00 0.00 0.00 0.00 0.00 0.00 0.00 0.00 0.00 0.00 0.00 0.00 0.00 0.00 0.00 0.00 0.00 0.00 0.00 0.00 0.00 0.00 0.00 0.00
0.00 0.00 0.00 0.00 0.00 0.00 0.00 0.00 0.00 0.00 0.00 0.00 0.00 0.00 0.00 0.00 0.00 0.00 0.00 0.00 0.00 0.00 0.00 0.00 0.00 0.00 0.00 0.00 0.00 0.00 0.00 0.00 0.00 0.00 0.00 0.00 0.00 0.00 0.00 0.00 0.00 0.00 0.00
0.00 0.00 0.00 0.00 0.00 0.00 0.00 0.00 0.00 0.00 0.00 0.00 0.00 0.00 0.00 0.00 0.00 0.00 0.00 0.00 0.00 0.00 0.00 0.00 0.00 0.00 0.00 0.00 0.00 0.00 0.00 0.00 0.00 0.00 0.00 0.00 0.00 0.00 0.00 0.00 0.00 0.00 0.00

GFSGL_prec_precacc24_156.txt.gz
Total_Precipitation_Accumulation
0.00 0.00 0.00 0.00 0.00 0.01 0.03 0.02 0.05 0.06 0.13 0.24 0.34 0.11 0.12 0.09 0.04 0.20 0.23 0.15 0.18 0.13 0.08 0.12 0.07 0.06 0.04 0.11 0.17 0.14 0.29 0.27 0.14 0.06 0.07 0.07 0.10 0.24 0.22 0.24 0.22 0.06 0.02
0.00 0.00 0.00 0.00 0.00 0.00 0.02 0.01 0.03 0.04 0.02 0.07 0.08 0.13 0.16 0.11 0.08 0.18 0.16 0.04 0.12 0.15 0.11 0.08 0.03 0.02 0.04 0.07 0.04 0.17 0.16 0.17 0.19 0.11 0.11 0.16 0.24 0.26 0.39 0.42 0.27 0.09 0.00
0.00 0.00 0.00 0.00 0.00 0.00 0.00 0.00 0.02 0.02 0.03 0.05 0.10 0.21 0.16 0.09 0.13 0.14 0.30 0.15 0.09 0.10 0.07 0.15 0.15 0.13 0.10 0.11 0.11 0.11 0.09 0.06 0.15 0.12 0.10 0.14 0.14 0.30 0.50 0.65 0.46 0.21 0.07
0.14 0.02 0.01 0.00 0.00 0.00 0.00 0.00 0.00 0.00 0.01 0.03 0.08 0.11 0.14 0.20 0.15 0.17 0.22 0.19 0.17 0.06 0.13 0.19 0.09 0.22 0.20 0.24 0.32 0.36 0.27 0.24 0.37 0.34 0.35 0.21 0.23 0.31 0.38 0.60 0.89 0.51 0.24
0.41 0.27 0.35 0.06 0.00 0.00 0.01 0.01 0.00 0.00 0.00 0.00 0.07 0.14 0.27 0.28 0.24 0.32 0.25 0.13 0.16 0.10 0.27 0.17 0.18 0.29 0.36 0.29 0.32 0.37 0.48 0.48 0.50 0.42 0.37 0.31 0.30 0.41 0.40 0.62 0.54 0.46 0.42
0.68 0.40 0.40 0.41 0.37 0.04 0.07 0.08 0.08 0.06 0.08 0.08 0.08 0.12 0.25 0.30 0.32 0.30 0.23 0.29 0.23 0.21 0.26 0.22 0.40 0.35 0.36 0.17 0.05 0.04 0.05 0.11 0.17 0.22 0.26 0.25 0.26 0.18 0.17 0.15 0.28 0.34 0.59
1.13 0.74 0.53 0.52 0.32 0.21 0.22 0.13 0.12 0.22 0.26 0.24 0.29 0.27 0.32 0.32 0.29 0.33 0.46 0.37 0.23 0.18 0.24 0.20 0.26 0.25 0.24 0.15 0.12 0.05 0.00 0.00 0.00 0.02 0.12 0.15 0.13 0.14 0.15 0.20 0.33 0.25 0.28
1.80 2.05 1.04 0.92 0.77 0.61 0.54 0.54 0.51 0.43 0.29 0.28 0.22 0.25 0.34 0.50 0.55 0.49 0.49 0.38 0.12 0.14 0.18 0.13 0.12 0.13 0.09 0.12 0.10 0.16 0.14 0.11 0.06 0.01 0.00 0.04 0.05 0.04 0.04 0.09 0.07 0.11 0.20
1.30 1.19 1.11 1.00 1.11 1.09 1.05 0.86 0.75 0.56 0.55 0.63 0.64 0.55 0.64 0.46 0.72 0.52 0.31 0.20 0.16 0.14 0.13 0.11 0.08 0.06 0.07 0.05 0.07 0.04 0.07 0.09 0.08 0.08 0.05 0.03 0.02 0.01 0.00 0.01 0.03 0.11 0.14
0.80 0.86 0.59 0.60 0.72 0.83 1.06 1.22 1.19 1.08 0.90 0.74 0.63 0.54 0.56 0.51 0.50 0.44 0.22 0.06 0.07 0.06 0.03 0.05 0.06 0.05 0.03 0.02 0.05 0.01 0.07 0.07 0.04 0.05 0.07 0.04 0.04 0.07 0.11 0.12 0.19 0.27 0.27
0.81 1.20 0.85 0.92 0.78 0.80 0.77 1.10 1.13 1.20 0.98 0.77 0.67 0.81 0.53 0.49 0.50 0.31 0.16 0.08 0.10 0.12 0.10 0.04 0.03 0.06 0.03 0.03 0.02 0.02 0.06 0.10 0.17 0.09 0.08 0.11 0.12 0.09 0.07 0.06 0.04 0.04 0.05
0.17 0.55 0.83 0.76 0.76 0.75 0.84 1.08 1.64 1.83 1.83 1.51 1.25 1.04 0.69 0.47 0.41 0.34 0.21 0.13 0.07 0.02 0.01 0.02 0.04 0.07 0.08 0.09 0.06 0.06 0.06 0.05 0.05 0.07 0.06 0.05 0.03 0.02 0.02 0.01 0.01 0.01 0.01
0.45 0.50 0.23 0.36 0.46 0.41 0.48 0.55 0.66 1.00 1.00 1.04 1.02 0.97 0.95 0.74 0.54 0.41 0.26 0.19 0.12 0.07 0.05 0.04 0.03 0.02 0.03 0.02 0.01 0.01 0.00 0.00 0.00 0.00 0.00 0.00 0.00 0.00 0.00 0.00 0.01 0.00 0.00
0.39 0.36 0.12 0.11 0.16 0.17 0.17 0.25 0.29 0.33 0.38 0.41 0.38 0.31 0.32 0.30 0.30 0.34 0.41 0.43 0.37 0.25 0.20 0.16 0.13 0.06 0.04 0.02 0.01 0.01 0.00 0.00 0.00 0.00 0.02 0.01 0.00 0.00 0.00 0.01 0.00 0.00 0.00
0.28 0.38 0.21 0.08 0.08 0.05 0.06 0.06 0.07 0.09 0.18 0.29 0.42 0.53 0.59 0.56 0.55 0.59 0.47 0.32 0.33 0.32 0.24 0.11 0.10 0.07 0.07 0.06 0.04 0.02 0.00 0.00 0.01 0.02 0.03 0.00 0.00 0.01 0.02 0.01 0.00 0.00 0.00
0.22 0.33 0.26 0.06 0.06 0.06 0.11 0.10 0.07 0.07 0.10 0.14 0.17 0.19 0.31 0.42 0.59 0.59 0.53 0.46 0.33 0.25 0.16 0.13 0.11 0.09 0.08 0.05 0.02 0.00 0.00 0.00 0.00 0.00 0.00 0.00 0.00 0.00 0.00 0.00 0.00 0.00 0.00
0.14 0.29 0.31 0.17 0.15 0.16 0.20 0.15 0.10 0.07 0.07 0.05 0.05 0.04 0.07 0.14 0.18 0.14 0.09 0.05 0.03 0.02 0.02 0.02 0.01 0.00 0.00 0.00 0.00 0.00 0.00 0.00 0.00 0.00 0.00 0.00 0.00 0.00 0.00 0.00 0.00 0.00 0.00
0.01 0.13 0.24 0.21 0.09 0.09 0.10 0.14 0.10 0.09 0.09 0.06 0.03 0.02 0.02 0.07 0.07 0.05 0.09 0.08 0.02 0.02 0.01 0.00 0.00 0.00 0.00 0.00 0.00 0.00 0.00 0.00 0.00 0.00 0.00 0.00 0.00 0.00 0.00 0.00 0.00 0.00 0.00
0.00 0.00 0.05 0.08 0.10 0.09 0.06 0.06 0.06 0.06 0.07 0.08 0.08 0.05 0.04 0.04 0.06 0.07 0.03 0.01 0.00 0.00 0.00 0.00 0.00 0.00 0.00 0.00 0.00 0.00 0.00 0.00 0.00 0.00 0.00 0.00 0.00 0.00 0.00 0.00 0.00 0.00 0.00
0.02 0.01 0.04 0.13 0.15 0.16 0.20 0.13 0.05 0.05 0.05 0.05 0.03 0.03 0.02 0.03 0.03 0.13 0.18 0.04 0.00 0.00 0.00 0.00 0.00 0.00 0.00 0.00 0.00 0.00 0.00 0.00 0.00 0.00 0.00 0.00 0.00 0.00 0.00 0.00 0.00 0.00 0.00
0.02 0.01 0.02 0.08 0.11 0.11 0.16 0.17 0.11 0.05 0.02 0.02 0.02 0.02 0.02 0.02 0.01 0.00 0.00 0.00 0.00 0.00 0.00 0.00 0.00 0.00 0.00 0.00 0.00 0.00 0.00 0.00 0.00 0.00 0.00 0.00 0.00 0.00 0.00 0.00 0.00 0.00 0.00
0.00 0.01 0.01 0.03 0.02 0.02 0.06 0.08 0.07 0.03 0.01 0.01 0.01 0.01 0.01 0.01 0.00 0.00 0.00 0.00 0.00 0.00 0.00 0.00 0.00 0.00 0.00 0.00 0.00 0.00 0.00 0.00 0.00 0.00 0.00 0.00 0.00 0.00 0.00 0.00 0.00 0.00 0.00
0.00 0.00 0.00 0.00 0.00 0.00 0.00 0.00 0.00 0.00 0.00 0.00 0.00 0.00 0.00 0.00 0.00 0.00 0.00 0.00 0.00 0.00 0.00 0.00 0.00 0.00 0.00 0.00 0.00 0.00 0.00 0.00 0.00 0.00 0.00 0.00 0.00 0.00 0.00 0.00 0.00 0.00 0.00
0.00 0.00 0.00 0.00 0.00 0.00 0.00 0.00 0.00 0.00 0.00 0.00 0.00 0.00 0.00 0.00 0.00 0.00 0.00 0.00 0.00 0.00 0.00 0.00 0.00 0.00 0.00 0.00 0.00 0.00 0.00 0.00 0.00 0.00 0.00 0.00 0.00 0.00 0.00 0.00 0.00 0.00 0.00
0.00 0.00 0.00 0.00 0.00 0.00 0.00 0.00 0.00 0.00 0.00 0.00 0.00 0.00 0.00 0.00 0.00 0.00 0.00 0.00 0.00 0.00 0.00 0.00 0.00 0.00 0.00 0.00 0.00 0.00 0.00 0.00 0.00 0.00 0.00 0.00 0.00 0.00 0.00 0.00 0.00 0.00 0.00
0.00 0.00 0.00 0.00 0.00 0.00 0.00 0.00 0.00 0.00 0.00 0.00 0.00 0.00 0.00 0.00 0.00 0.00 0.00 0.00 0.00 0.00 0.00 0.00 0.00 0.00 0.00 0.00 0.00 0.00 0.00 0.00 0.00 0.00 0.00 0.00 0.00 0.00 0.00 0.00 0.00 0.00 0.00

GFSGL_prec_precacc24_159.txt.gz
Total_Precipitation_Accumulation
0.01 0.01 0.02 0.03 0.01 0.01 0.02 0.01 0.02 0.05 0.13 0.22 0.29 0.08 0.12 0.06 0.04 0.20 0.23 0.14 0.19 0.15 0.09 0.11 0.06 0.05 0.04 0.11 0.17 0.13 0.29 0.26 0.14 0.06 0.11 0.21 0.29 0.47 0.34 0.40 0.23 0.06 0.05
0.17 0.09 0.05 0.05 0.04 0.03 0.01 0.00 0.00 0.03 0.02 0.04 0.05 0.09 0.15 0.10 0.08 0.18 0.17 0.05 0.13 0.15 0.10 0.07 0.03 0.02 0.04 0.07 0.03 0.16 0.15 0.17 0.20 0.19 0.17 0.21 0.35 0.36 0.39 0.51 0.35 0.16 0.07
0.19 0.11 0.11 0.07 0.02 0.04 0.01 0.00 0.00 0.02 0.02 0.02 0.07 0.18 0.15 0.09 0.13 0.14 0.30 0.16 0.09 0.10 0.07 0.15 0.16 0.13 0.10 0.11 0.11 0.11 0.09 0.09 0.15 0.16 0.14 0.19 0.17 0.30 0.44 0.56 0.39 0.20 0.08
0.52 0.28 0.18 0.14 0.06 0.01 0.00 0.00 0.01 0.01 0.01 0.02 0.08 0.11 0.14 0.20 0.15 0.17 0.22 0.19 0.17 0.08 0.13 0.19 0.10 0.22 0.20 0.24 0.32 0.34 0.25 0.24 0.34 0.34 0.34 0.21 0.20 0.28 0.26 0.34 0.43 0.38 0.22
0.72 1.09 0.85 0.28 0.18 0.14 0.07 0.04 0.00 0.01 0.00 0.00 0.07 0.14 0.27 0.28 0.24 0.30 0.25 0.13 0.15 0.11 0.29 0.17 0.21 0.36 0.39 0.29 0.34 0.37 0.45 0.45 0.49 0.40 0.35 0.30 0.27 0.38 0.31 0.29 0.25 0.28 0.37
0.89 0.74 0.71 0.59 0.79 0.42 0.22 0.17 0.15 0.08 0.09 0.07 0.07 0.10 0.22 0.27 0.28 0.23 0.21 0.27 0.20 0.20 0.27 0.26 0.45 0.44 0.38 0.16 0.04 0.03 0.05 0.09 0.16 0.20 0.19 0.19 0.23 0.14 0.14 0.12 0.24 0.23 0.48
0.97 1.06 0.89 0.75 0.65 0.48 0.24 0.19 0.19 0.16 0.22 0.16 0.19 0.16 0.19 0.14 0.13 0.24 0.37 0.36 0.21 0.15 0.22 0.21 0.31 0.25 0.29 0.22 0.09 0.01 0.00 0.00 0.00 0.01 0.09 0.08 0.09 0.07 0.05 0.11 0.23 0.16 0.18
1.42 1.86 1.12 1.10 0.94 0.78 0.54 0.40 0.41 0.40 0.22 0.26 0.25 0.26 0.27 0.37 0.45 0.42 0.48 0.37 0.11 0.11 0.15 0.11 0.14 0.13 0.11 0.16 0.07 0.02 0.00 0.01 0.01 0.01 0.00 0.01 0.03 0.03 0.03 0.04 0.04 0.06 0.11
1.21 1.11 1.03 0.97 1.29 1.36 1.21 1.03 0.97 0.80 0.67 0.65 0.67 0.66 0.61 0.39 0.70 0.57 0.43 0.22 0.15 0.13 0.11 0.08 0.07 0.12 0.15 0.07 0.06 0.02 0.00 0.00 0.02 0.05 0.04 0.03 0.02 0.01 0.00 0.01 0.02 0.07 0.06
0.63 0.70 0.49 0.52 0.62 0.78 1.07 1.24 1.22 1.15 1.04 1.01 0.94 0.88 0.93 0.80 0.92 0.80 0.50 0.20 0.14 0.09 0.03 0.04 0.05 0.06 0.04 0.03 0.05 0.01 0.01 0.03 0.02 0.02 0.04 0.04 0.04 0.07 0.11 0.12 0.19 0.27 0.27
0.68 1.10 0.77 0.85 0.70 0.70 0.72 1.12 1.16 1.26 1.09 0.88 0.78 1.10 0.88 0.85 0.81 0.72 0.54 0.37 0.33 0.10 0.05 0.01 0.02 0.08 0.02 0.01 0.01 0.00 0.02 0.03 0.10 0.06 0.07 0.10 0.11 0.09 0.07 0.06 0.04 0.04 0.04
0.17 0.44 0.74 0.73 0.75 0.74 0.84 1.08 1.65 1.85 1.89 1.59 1.31 1.14 0.94 0.75 0.67 0.65 0.49 0.33 0.27 0.11 0.05 0.04 0.03 0.03 0.02 0.01 0.01 0.01 0.01 0.01 0.03 0.06 0.06 0.04 0.02 0.02 0.02 0.00 0.00 0.00 0.00
0.45 0.49 0.22 0.36 0.46 0.41 0.48 0.55 0.66 1.00 1.00 1.05 1.04 0.99 0.99 0.81 0.61 0.51 0.36 0.30 0.21 0.13 0.09 0.07 0.04 0.01 0.01 0.01 0.01 0.00 0.00 0.00 0.00 0.00 0.00 0.00 0.00 0.00 0.00 0.00 0.00 0.00 0.00
0.38 0.37 0.12 0.11 0.16 0.17 0.17 0.25 0.29 0.33 0.38 0.41 0.38 0.32 0.32 0.30 0.30 0.34 0.42 0.47 0.45 0.37 0.32 0.26 0.22 0.12 0.06 0.04 0.02 0.01 0.01 0.01 0.00 0.00 0.00 0.00 0.00 0.00 0.00 0.00 0.00 0.00 0.00
0.28 0.39 0.22 0.08 0.08 0.05 0.06 0.06 0.07 0.09 0.18 0.29 0.42 0.53 0.59 0.56 0.57 0.63 0.54 0.39 0.43 0.59 0.69 0.66 0.67 0.54 0.29 0.15 0.08 0.04 0.03 0.01 0.00 0.00 0.00 0.00 0.00 0.00 0.00 0.00 0.00 0.00 0.00
0.22 0.34 0.26 0.06 0.06 0.06 0.11 0.10 0.07 0.07 0.11 0.14 0.17 0.19 0.31 0.42 0.61 0.73 0.80 0.92 0.89 0.71 0.44 0.32 0.26 0.19 0.16 0.10 0.05 0.02 0.01 0.01 0.00 0.00 0.00 0.00 0.00 0.00 0.00 0.00 0.00 0.00 0.00
0.14 0.29 0.32 0.17 0.15 0.16 0.20 0.15 0.10 0.07 0.07 0.05 0.05 0.04 0.07 0.15 0.20 0.20 0.21 0.24 0.26 0.26 0.23 0.17 0.10 0.05 0.01 0.00 0.00 0.00 0.00 0.00 0.00 0.00 0.00 0.00 0.00 0.00 0.00 0.00 0.00 0.00 0.00
0.01 0.13 0.24 0.22 0.10 0.10 0.11 0.14 0.10 0.09 0.09 0.06 0.03 0.02 0.03 0.07 0.07 0.07 0.15 0.20 0.18 0.17 0.14 0.08 0.04 0.02 0.00 0.00 0.00 0.00 0.00 0.00 0.00 0.00 0.00 0.00 0.00 0.00 0.00 0.00 0.00 0.00 0.00
0.00 0.00 0.05 0.08 0.11 0.10 0.06 0.06 0.06 0.06 0.07 0.08 0.08 0.05 0.04 0.05 0.07 0.08 0.04 0.02 0.02 0.03 0.03 0.01 0.00 0.00 0.00 0.00 0.00 0.00 0.00 0.00 0.00 0.00 0.00 0.00 0.00 0.00 0.00 0.00 0.00 0.00 0.00
0.02 0.01 0.05 0.13 0.15 0.19 0.21 0.14 0.06 0.05 0.05 0.05 0.04 0.04 0.03 0.04 0.06 0.16 0.22 0.12 0.01 0.00 0.00 0.00 0.00 0.00 0.00 0.00 0.00 0.00 0.00 0.00 0.00 0.00 0.00 0.00 0.00 0.00 0.00 0.00 0.00 0.00 0.00
0.02 0.01 0.02 0.09 0.11 0.13 0.20 0.24 0.19 0.12 0.07 0.06 0.05 0.04 0.03 0.03 0.04 0.02 0.00 0.00 0.00 0.00 0.00 0.00 0.00 0.00 0.00 0.00 0.00 0.00 0.00 0.00 0.00 0.00 0.00 0.00 0.00 0.00 0.00 0.00 0.00 0.00 0.00
0.01 0.01 0.01 0.03 0.02 0.02 0.08 0.11 0.10 0.04 0.01 0.02 0.03 0.03 0.03 0.01 0.00 0.00 0.00 0.00 0.00 0.00 0.00 0.00 0.00 0.00 0.00 0.00 0.00 0.00 0.00 0.00 0.00 0.00 0.00 0.00 0.00 0.00 0.00 0.00 0.00 0.00 0.00
0.00 0.00 0.00 0.00 0.00 0.00 0.00 0.00 0.00 0.00 0.00 0.00 0.00 0.00 0.00 0.00 0.00 0.00 0.00 0.00 0.00 0.00 0.00 0.00 0.00 0.00 0.00 0.00 0.00 0.00 0.00 0.00 0.00 0.00 0.00 0.00 0.00 0.00 0.00 0.00 0.00 0.00 0.00
0.00 0.00 0.00 0.00 0.00 0.00 0.00 0.00 0.00 0.00 0.00 0.00 0.00 0.00 0.00 0.00 0.00 0.00 0.00 0.00 0.00 0.00 0.00 0.00 0.00 0.00 0.00 0.00 0.00 0.00 0.00 0.00 0.00 0.00 0.00 0.00 0.00 0.00 0.00 0.00 0.00 0.00 0.00
0.00 0.00 0.00 0.00 0.00 0.00 0.00 0.00 0.00 0.00 0.00 0.00 0.00 0.00 0.00 0.00 0.00 0.00 0.00 0.00 0.00 0.00 0.00 0.00 0.00 0.00 0.00 0.00 0.00 0.00 0.00 0.00 0.00 0.00 0.00 0.00 0.00 0.00 0.00 0.00 0.00 0.00 0.00
0.00 0.00 0.00 0.00 0.00 0.00 0.00 0.00 0.00 0.00 0.00 0.00 0.00 0.00 0.00 0.00 0.00 0.00 0.00 0.00 0.00 0.00 0.00 0.00 0.00 0.00 0.00 0.00 0.00 0.00 0.00 0.00 0.00 0.00 0.00 0.00 0.00 0.00 0.00 0.00 0.00 0.00 0.00